KLM603 EHAM-KLAX

Flight info

Callsign KLM603
Flight time 11h 8m
Altitude 34000
Route BERGI L602 EMLON M79 TENDO DCT NAVSO DCT IBROD DCT SUNOT/M083F350 NATA HOIST/N0486F360 DCT 5430N06000W 53N070W/N0487F380 51N080W 4830N09000W DCT KP12G/N0484F400 DCT KP84A DCT KD63U DCT KU51Q DCT PROMT Q88 HAKMN ANJLL4
Aircraft MD11/H-SDE1E2E3FGHIJ2J3J4J5M1RWXY/LB1D1

Departure

Time 2026-05-05 12:41
Airport Amsterdam Airport Schiphol (EHAM)

Arrival

Time 2026-05-05 23:49
Airport Los Angeles International Airport (KLAX)
Time Latitude Longitude Altitude Speed Heading
2026-05-05 12:01 52.30803 4.76633 6 ft 0 kts 345°
2026-05-05 12:25 52.30800 4.76640 6 ft 4 kts 30°
2026-05-05 12:25 52.30778 4.76618 8 ft 4 kts
2026-05-05 12:25 52.30761 4.76634 9 ft 4 kts 318°
2026-05-05 12:25 52.30743 4.76659 9 ft 4 kts 321°
2026-05-05 12:26 52.30726 4.76679 8 ft 3 kts 328°
2026-05-05 12:26 52.30703 4.76702 10 ft 4 kts 328°
2026-05-05 12:26 52.30681 4.76726 8 ft 4 kts 328°
2026-05-05 12:26 52.30661 4.76746 8 ft 1 kts 328°
2026-05-05 12:27 52.30660 4.76747 8 ft 0 kts 328°
2026-05-05 12:31 52.30661 4.76746 8 ft 1 kts 328°
2026-05-05 12:31 52.30677 4.76732 8 ft 5 kts 337°
2026-05-05 12:31 52.30709 4.76747 7 ft 5 kts 44°
2026-05-05 12:32 52.30711 4.76809 6 ft 7 kts 108°
2026-05-05 12:32 52.30666 4.76856 6 ft 10 kts 165°
2026-05-05 12:32 52.30585 4.76893 6 ft 15 kts 154°
2026-05-05 12:32 52.30481 4.76970 6 ft 16 kts 177°
2026-05-05 12:33 52.30428 4.76873 6 ft 11 kts 240°
2026-05-05 12:33 52.30382 4.76750 6 ft 14 kts 237°
2026-05-05 12:33 52.30325 4.76602 6 ft 17 kts 237°
2026-05-05 12:33 52.30255 4.76427 6 ft 20 kts 237°
2026-05-05 12:34 52.30181 4.76224 6 ft 22 kts 238°
2026-05-05 12:34 52.30094 4.76000 7 ft 25 kts 238°
2026-05-05 12:34 52.29999 4.75751 6 ft 26 kts 238°
2026-05-05 12:34 52.29905 4.75505 6 ft 25 kts 238°
2026-05-05 12:35 52.29832 4.75265 6 ft 22 kts 269°
2026-05-05 12:35 52.29907 4.75074 7 ft 19 kts 311°
2026-05-05 12:35 52.29992 4.74915 7 ft 18 kts 310°
2026-05-05 12:35 52.30068 4.74768 8 ft 15 kts 310°
2026-05-05 12:36 52.30120 4.74676 15 ft 6 kts 313°
2026-05-05 12:36 52.30133 4.74652 17 ft 1 kts 311°
2026-05-05 12:36 52.30134 4.74650 17 ft 1 kts 311°
2026-05-05 12:36 52.30167 4.74591 17 ft 12 kts 312°
2026-05-05 12:37 52.30222 4.74491 17 ft 11 kts 311°
2026-05-05 12:37 52.30272 4.74397 17 ft 10 kts 311°
2026-05-05 12:37 52.30333 4.74282 6 ft 18 kts 309°
2026-05-05 12:37 52.30362 4.74120 7 ft 14 kts 252°
2026-05-05 12:38 52.30302 4.74014 6 ft 12 kts 218°
2026-05-05 12:38 52.30237 4.73933 6 ft 12 kts 217°
2026-05-05 12:38 52.30190 4.73841 6 ft 10 kts 252°
2026-05-05 12:38 52.30209 4.73755 5 ft 8 kts 324°
2026-05-05 12:39 52.30261 4.73744 4 ft 8 kts
2026-05-05 12:39 52.30280 4.73745 3 ft 0 kts
2026-05-05 12:39 52.30285 4.73746 3 ft 4 kts
2026-05-05 12:40 52.30428 4.73759 4 ft 51 kts
2026-05-05 12:40 52.31036 4.73814 7 ft 121 kts
2026-05-05 12:40 52.32066 4.73910 6 ft 169 kts
2026-05-05 12:40 52.33295 4.74010 316 ft 178 kts
2026-05-05 12:41 52.34528 4.74052 1010 ft 176 kts
2026-05-05 12:41 52.35734 4.73826 1764 ft 174 kts 353°
2026-05-05 12:41 52.36934 4.73497 2404 ft 176 kts 354°
2026-05-05 12:41 52.38147 4.73169 3001 ft 178 kts 354°
2026-05-05 12:42 52.39421 4.72827 3297 ft 197 kts 354°
2026-05-05 12:42 52.40832 4.72450 3552 ft 215 kts 353°
2026-05-05 12:42 52.42389 4.71922 3689 ft 242 kts 343°
2026-05-05 12:42 52.43906 4.70440 3869 ft 269 kts 323°
2026-05-05 12:43 52.45299 4.68326 4629 ft 274 kts 317°
2026-05-05 12:43 52.46661 4.66104 5454 ft 279 kts 315°
2026-05-05 12:43 52.48039 4.63830 6255 ft 283 kts 315°
2026-05-05 12:43 52.49437 4.61522 7033 ft 286 kts 314°
2026-05-05 12:44 52.50835 4.59223 7785 ft 289 kts 316°
2026-05-05 12:44 52.52431 4.57183 8515 ft 292 kts 326°
2026-05-05 12:44 52.54169 4.55423 9273 ft 295 kts 328°
2026-05-05 12:44 52.55955 4.53725 9978 ft 298 kts 329°
2026-05-05 12:45 52.57817 4.51975 10224 ft 319 kts 329°
2026-05-05 12:45 52.59818 4.50094 10359 ft 343 kts 329°
2026-05-05 12:45 52.61944 4.48093 10734 ft 356 kts 329°
2026-05-05 12:45 52.64095 4.46065 11464 ft 358 kts 329°
2026-05-05 12:46 52.66267 4.44013 12158 ft 361 kts 328°
2026-05-05 12:46 52.68454 4.41941 12881 ft 364 kts 328°
2026-05-05 12:46 52.70667 4.39842 13510 ft 368 kts 327°
2026-05-05 12:46 52.72889 4.37717 14063 ft 372 kts 327°
2026-05-05 12:47 52.74949 4.35134 14579 ft 371 kts 311°
2026-05-05 12:47 52.76533 4.31750 15121 ft 372 kts 300°
2026-05-05 12:47 52.77844 4.28045 15600 ft 376 kts 297°
2026-05-05 12:47 52.79078 4.24226 16178 ft 378 kts 296°
2026-05-05 12:48 52.80314 4.20356 16646 ft 383 kts 296°
2026-05-05 12:48 52.81577 4.16454 17157 ft 386 kts 297°
2026-05-05 12:48 52.82850 4.12582 17652 ft 389 kts 297°
2026-05-05 12:48 52.84157 4.08647 18152 ft 393 kts 297°
2026-05-05 12:49 52.85484 4.04679 18589 ft 395 kts 297°
2026-05-05 12:49 52.86823 4.00688 19055 ft 397 kts 297°
2026-05-05 12:49 52.88168 3.96678 19468 ft 400 kts 297°
2026-05-05 12:49 52.89517 3.92651 19880 ft 402 kts 297°
2026-05-05 12:50 52.90875 3.88592 20273 ft 404 kts 297°
2026-05-05 12:50 52.92240 3.84507 20683 ft 407 kts 296°
2026-05-05 12:50 52.93612 3.80393 21097 ft 409 kts 296°
2026-05-05 12:50 52.94992 3.76248 21545 ft 411 kts 296°
2026-05-05 12:51 52.96370 3.72104 22090 ft 410 kts 296°
2026-05-05 12:51 52.97745 3.67947 22525 ft 412 kts 296°
2026-05-05 12:51 52.99124 3.63751 22959 ft 415 kts 296°
2026-05-05 12:51 53.00513 3.59523 23399 ft 417 kts 296°
2026-05-05 12:52 53.01908 3.55278 23795 ft 420 kts 295°
2026-05-05 12:52 53.03306 3.51012 24195 ft 422 kts 296°
2026-05-05 12:52 53.04694 3.46781 24581 ft 423 kts 295°
2026-05-05 12:52 53.06107 3.42468 24969 ft 425 kts 295°
2026-05-05 12:53 53.07526 3.38133 25372 ft 427 kts 295°
2026-05-05 12:53 53.08947 3.33784 25754 ft 429 kts 295°
2026-05-05 12:53 53.10191 3.29285 26130 ft 427 kts 287°
2026-05-05 12:53 53.11047 3.24553 26502 ft 427 kts 281°
2026-05-05 12:54 53.12304 3.14849 27263 ft 430 kts 278°
2026-05-05 12:54 53.12897 3.09940 27641 ft 432 kts 278°
2026-05-05 12:54 53.13505 3.05017 28021 ft 435 kts 279°
2026-05-05 12:55 53.14129 3.00085 28317 ft 438 kts 279°
2026-05-05 12:55 53.14768 2.95119 28668 ft 440 kts 279°
2026-05-05 12:55 53.15417 2.90122 29033 ft 442 kts 279°
2026-05-05 12:55 53.16070 2.85100 29378 ft 444 kts 279°
2026-05-05 12:56 53.16726 2.80054 29712 ft 446 kts 279°
2026-05-05 12:56 53.17438 2.75074 29968 ft 450 kts 285°
2026-05-05 12:56 53.18690 2.70196 30267 ft 455 kts 296°
2026-05-05 12:56 53.20366 2.65694 30548 ft 458 kts 300°
2026-05-05 12:57 53.22159 2.61300 30854 ft 459 kts 300°
2026-05-05 12:57 53.23427 2.58129 31062 ft 459 kts 300°
2026-05-05 12:57 53.25153 2.53589 31304 ft 460 kts 299°
2026-05-05 12:57 53.26803 2.48995 31522 ft 461 kts 298°
2026-05-05 12:58 53.28402 2.44355 31795 ft 461 kts 297°
2026-05-05 12:58 53.29974 2.39687 32063 ft 461 kts 297°
2026-05-05 12:58 53.31529 2.35014 32340 ft 460 kts 297°
2026-05-05 12:58 53.33083 2.30325 32605 ft 460 kts 297°
2026-05-05 12:59 53.34634 2.25638 32850 ft 460 kts 297°
2026-05-05 12:59 53.36186 2.20947 33092 ft 460 kts 297°
2026-05-05 12:59 53.37735 2.16260 33325 ft 460 kts 297°
2026-05-05 13:00 53.40832 2.06873 33782 ft 460 kts 297°
2026-05-05 13:00 53.42376 2.02182 33959 ft 461 kts 297°
2026-05-05 13:01 53.48609 1.83151 34002 ft 467 kts 297°
2026-05-05 13:01 53.51724 1.73586 34001 ft 467 kts 297°
2026-05-05 13:02 53.54816 1.64054 33998 ft 467 kts 297°
2026-05-05 13:02 53.57900 1.54450 34001 ft 467 kts 297°
2026-05-05 13:03 53.60964 1.44766 33999 ft 469 kts 297°
2026-05-05 13:03 53.64047 1.35079 33999 ft 469 kts 297°
2026-05-05 13:04 53.67137 1.25392 33999 ft 469 kts 297°
2026-05-05 13:04 53.70224 1.15690 34001 ft 469 kts 297°
2026-05-05 13:05 53.73302 1.05970 34007 ft 469 kts 297°
2026-05-05 13:05 53.76363 0.96268 34002 ft 466 kts 296°
2026-05-05 13:06 53.79402 0.86595 33999 ft 465 kts 296°
2026-05-05 13:06 53.82407 0.76992 33999 ft 465 kts 296°
2026-05-05 13:07 53.85425 0.67303 34000 ft 466 kts 297°
2026-05-05 13:07 53.88443 0.57581 34004 ft 466 kts 296°
2026-05-05 13:08 53.91446 0.47867 33999 ft 466 kts 296°
2026-05-05 13:08 53.94452 0.38104 34001 ft 466 kts 296°
2026-05-05 13:09 53.97420 0.28325 34002 ft 466 kts 296°
2026-05-05 13:09 54.00361 0.18541 34017 ft 464 kts 296°
2026-05-05 13:10 54.03304 0.08809 34011 ft 462 kts 296°
2026-05-05 13:10 54.06245 -0.00905 34020 ft 462 kts 296°
2026-05-05 13:11 54.09179 -0.10627 34014 ft 460 kts 295°
2026-05-05 13:11 54.12102 -0.20359 34013 ft 461 kts 296°
2026-05-05 13:12 54.14999 -0.30038 34017 ft 460 kts 295°
2026-05-05 13:12 54.17909 -0.39805 34014 ft 461 kts 295°
2026-05-05 13:13 54.20810 -0.49583 34015 ft 462 kts 295°
2026-05-05 13:13 54.23704 -0.59373 34012 ft 461 kts 295°
2026-05-05 13:14 54.26098 -0.67505 34025 ft 457 kts 295°
2026-05-05 13:14 54.28950 -0.77226 34025 ft 456 kts 295°
2026-05-05 13:15 54.31787 -0.86941 34022 ft 456 kts 295°
2026-05-05 13:15 54.34579 -0.96622 34030 ft 456 kts 294°
2026-05-05 13:16 54.37359 -1.06398 34025 ft 456 kts 294°
2026-05-05 13:16 54.40161 -1.16180 34041 ft 456 kts 294°
2026-05-05 13:17 54.42964 -1.25945 34048 ft 456 kts 294°
2026-05-05 13:17 54.45766 -1.35736 34050 ft 456 kts 294°
2026-05-05 13:18 54.48555 -1.45526 34048 ft 456 kts 294°
2026-05-05 13:18 54.51333 -1.55314 34049 ft 453 kts 294°
2026-05-05 13:19 54.54087 -1.65066 34048 ft 453 kts 294°
2026-05-05 13:19 54.56835 -1.74837 34040 ft 453 kts 293°
2026-05-05 13:20 54.59575 -1.84618 34039 ft 453 kts 293°
2026-05-05 13:20 54.62305 -1.94408 34029 ft 453 kts 293°
2026-05-05 13:21 54.65030 -2.04220 34025 ft 453 kts 293°
2026-05-05 13:21 54.67729 -2.13976 34032 ft 453 kts 293°
2026-05-05 13:22 54.70421 -2.23804 34028 ft 450 kts 292°
2026-05-05 13:22 54.73061 -2.33629 34053 ft 450 kts 292°
2026-05-05 13:23 54.75703 -2.43391 34027 ft 446 kts 292°
2026-05-05 13:23 54.78338 -2.53103 34024 ft 445 kts 292°
2026-05-05 13:24 54.80972 -2.62829 34017 ft 446 kts 292°
2026-05-05 13:24 54.83582 -2.72508 34018 ft 446 kts 292°
2026-05-05 13:25 54.86204 -2.82276 34015 ft 447 kts 292°
2026-05-05 13:25 54.88820 -2.92066 34017 ft 447 kts 292°
2026-05-05 13:26 54.91435 -3.01888 34022 ft 447 kts 292°
2026-05-05 13:26 54.94037 -3.11709 34035 ft 447 kts 292°
2026-05-05 13:27 54.96630 -3.21538 34040 ft 447 kts 291°
2026-05-05 13:27 54.99219 -3.31394 34027 ft 449 kts 292°
2026-05-05 13:28 55.01794 -3.41242 34027 ft 450 kts 292°
2026-05-05 13:28 55.04378 -3.51167 34032 ft 450 kts 291°
2026-05-05 13:29 55.06915 -3.61151 34028 ft 450 kts 291°
2026-05-05 13:29 55.09454 -3.71133 34027 ft 450 kts 291°
2026-05-05 13:30 55.12004 -3.81095 34029 ft 450 kts 291°
2026-05-05 13:30 55.14564 -3.91103 34032 ft 452 kts 292°
2026-05-05 13:31 55.17117 -4.01125 34036 ft 452 kts 292°
2026-05-05 13:31 55.19670 -4.11193 34051 ft 452 kts 292°
2026-05-05 13:32 55.22208 -4.21249 34039 ft 452 kts 292°
2026-05-05 13:32 55.24737 -4.31317 34042 ft 451 kts 292°
2026-05-05 13:33 55.27259 -4.41402 34044 ft 451 kts 292°
2026-05-05 13:33 55.29769 -4.51485 34045 ft 451 kts 292°
2026-05-05 13:34 55.32276 -4.61605 34049 ft 451 kts 292°
2026-05-05 13:34 55.34755 -4.71655 34055 ft 451 kts 292°
2026-05-05 13:35 55.37240 -4.81774 34053 ft 451 kts 292°
2026-05-05 13:35 55.39684 -4.91930 34059 ft 451 kts 291°
2026-05-05 13:36 55.42113 -5.02108 34070 ft 450 kts 291°
2026-05-05 13:36 55.44550 -5.12235 34063 ft 448 kts 291°
2026-05-05 13:37 55.46982 -5.22330 34061 ft 447 kts 291°
2026-05-05 13:37 55.49392 -5.32375 34063 ft 448 kts 291°
2026-05-05 13:38 55.51810 -5.42500 34072 ft 447 kts 291°
2026-05-05 13:38 55.54218 -5.52630 34073 ft 447 kts 291°
2026-05-05 13:39 55.56619 -5.62780 34079 ft 447 kts 291°
2026-05-05 13:39 55.59010 -5.72939 34077 ft 447 kts 291°
2026-05-05 13:40 55.61389 -5.83092 34077 ft 447 kts 291°
2026-05-05 13:40 55.63744 -5.93190 34076 ft 447 kts 291°
2026-05-05 13:41 55.66104 -6.03361 34080 ft 446 kts 291°
2026-05-05 13:41 55.68454 -6.13533 34074 ft 446 kts 291°
2026-05-05 13:42 55.70776 -6.23707 34073 ft 445 kts 290°
2026-05-05 13:42 55.73057 -6.33924 34077 ft 445 kts 290°
2026-05-05 13:43 55.75300 -6.43884 34075 ft 445 kts 290°
2026-05-05 13:43 55.77611 -6.54099 34087 ft 445 kts 290°
2026-05-05 13:44 55.79898 -6.64240 34107 ft 445 kts 290°
2026-05-05 13:44 55.82194 -6.74466 34112 ft 445 kts 290°
2026-05-05 13:45 55.84484 -6.84723 34115 ft 446 kts 290°
2026-05-05 13:45 55.86767 -6.94996 34114 ft 446 kts 290°
2026-05-05 13:46 55.89043 -7.05285 34119 ft 446 kts 290°
2026-05-05 13:46 55.91307 -7.15574 34125 ft 446 kts 290°
2026-05-05 13:47 55.93567 -7.25897 34123 ft 446 kts 290°
2026-05-05 13:47 55.95815 -7.36214 34127 ft 446 kts 290°
2026-05-05 13:48 55.98044 -7.46498 34125 ft 447 kts 290°
2026-05-05 13:48 56.00278 -7.56859 34136 ft 447 kts 290°
2026-05-05 13:49 56.02460 -7.67265 34135 ft 447 kts 289°
2026-05-05 13:49 56.04642 -7.77671 34141 ft 447 kts 289°
2026-05-05 13:50 56.06838 -7.88059 34156 ft 445 kts 289°
2026-05-05 13:50 56.09007 -7.98321 34140 ft 444 kts 289°
2026-05-05 13:51 56.11184 -8.08673 34148 ft 444 kts 289°
2026-05-05 13:51 56.13352 -8.19033 34143 ft 444 kts 289°
2026-05-05 13:52 56.15509 -8.29398 34152 ft 444 kts 289°
2026-05-05 13:52 56.17661 -8.39792 34156 ft 444 kts 289°
2026-05-05 13:53 56.19801 -8.50177 34152 ft 444 kts 289°
2026-05-05 13:53 56.21932 -8.60579 34147 ft 444 kts 289°
2026-05-05 13:54 56.24059 -8.71013 34163 ft 444 kts 289°
2026-05-05 13:54 56.26171 -8.81429 34179 ft 443 kts 289°
2026-05-05 13:55 56.28270 -8.91833 34156 ft 441 kts 288°
2026-05-05 13:55 56.30333 -9.02230 34161 ft 441 kts 288°
2026-05-05 13:56 56.32348 -9.12603 34161 ft 441 kts 288°
2026-05-05 13:56 56.34396 -9.23026 34155 ft 442 kts 288°
2026-05-05 13:57 56.36458 -9.33487 34168 ft 443 kts 288°
2026-05-05 13:57 56.38518 -9.43966 34174 ft 443 kts 288°
2026-05-05 13:58 56.40569 -9.54462 34175 ft 443 kts 288°
2026-05-05 13:58 56.42607 -9.64949 34177 ft 443 kts 288°
2026-05-05 13:59 56.45652 -9.80726 34204 ft 443 kts 288°
2026-05-05 14:00 56.48330 -9.94703 34183 ft 442 kts 287°
2026-05-05 14:00 56.50670 -10.07007 34187 ft 442 kts 287°
2026-05-05 14:01 56.52325 -10.17701 34183 ft 441 kts 281°
2026-05-05 14:01 56.53588 -10.28580 34184 ft 441 kts 280°
2026-05-05 14:02 56.54819 -10.39386 34184 ft 441 kts 281°
2026-05-05 14:02 56.56084 -10.50260 34187 ft 441 kts 281°
2026-05-05 14:03 56.57359 -10.61172 34189 ft 442 kts 281°
2026-05-05 14:03 56.58414 -10.70249 34189 ft 442 kts 280°
2026-05-05 14:04 56.59675 -10.81179 34189 ft 442 kts 280°
2026-05-05 14:04 56.60924 -10.92107 34189 ft 442 kts 280°
2026-05-05 14:05 56.62164 -11.03046 34196 ft 442 kts 280°
2026-05-05 14:05 56.63392 -11.13975 34192 ft 442 kts 280°
2026-05-05 14:06 56.64612 -11.24926 34192 ft 442 kts 280°
2026-05-05 14:06 56.65825 -11.35905 34195 ft 442 kts 280°
2026-05-05 14:07 56.67019 -11.46808 34195 ft 442 kts 280°
2026-05-05 14:07 56.68210 -11.57781 34195 ft 442 kts 279°
2026-05-05 14:08 56.69339 -11.68782 34195 ft 442 kts 279°
2026-05-05 14:08 56.70473 -11.79782 34193 ft 441 kts 280°
2026-05-05 14:09 56.71623 -11.90752 34194 ft 441 kts 280°
2026-05-05 14:09 56.72774 -12.01737 34194 ft 441 kts 280°
2026-05-05 14:10 56.73913 -12.12696 34195 ft 441 kts 279°
2026-05-05 14:10 56.75044 -12.23682 34198 ft 441 kts 279°
2026-05-05 14:11 56.76165 -12.34671 34195 ft 441 kts 279°
2026-05-05 14:11 56.77269 -12.45602 34203 ft 441 kts 279°
2026-05-05 14:12 56.78372 -12.56615 34192 ft 441 kts 279°
2026-05-05 14:12 56.79463 -12.67623 34193 ft 441 kts 279°
2026-05-05 14:13 56.80543 -12.78613 34203 ft 441 kts 279°
2026-05-05 14:13 56.81616 -12.89648 34201 ft 441 kts 279°
2026-05-05 14:14 56.82679 -13.00683 34201 ft 441 kts 279°
2026-05-05 14:14 56.83710 -13.11714 34200 ft 441 kts 278°
2026-05-05 14:15 56.84696 -13.22762 34206 ft 441 kts 279°
2026-05-05 14:15 56.85698 -13.33729 34203 ft 441 kts 279°
2026-05-05 14:16 56.86718 -13.44782 34198 ft 441 kts 279°
2026-05-05 14:16 56.87733 -13.55843 34208 ft 441 kts 279°
2026-05-05 14:17 56.88737 -13.66900 34204 ft 441 kts 279°
2026-05-05 14:17 56.89732 -13.77976 34217 ft 440 kts 279°
2026-05-05 14:18 56.90713 -13.89013 34210 ft 439 kts 278°
2026-05-05 14:18 56.91678 -13.99983 34208 ft 439 kts 278°
2026-05-05 14:19 56.92638 -14.11020 34208 ft 439 kts 278°
2026-05-05 14:19 56.93589 -14.22068 34205 ft 439 kts 278°
2026-05-05 14:20 56.94531 -14.33127 34206 ft 439 kts 278°
2026-05-05 14:20 56.95462 -14.44182 34206 ft 439 kts 278°
2026-05-05 14:21 56.96384 -14.55248 34211 ft 439 kts 278°
2026-05-05 14:21 56.97249 -14.66326 34212 ft 439 kts 277°
2026-05-05 14:22 56.98107 -14.77407 34205 ft 439 kts 278°
2026-05-05 14:22 56.98986 -14.88488 34195 ft 439 kts 278°
2026-05-05 14:23 57.00087 -14.99509 34210 ft 440 kts 286°
2026-05-05 14:23 57.02231 -15.09953 34226 ft 440 kts 292°
2026-05-05 14:24 57.04639 -15.20241 34211 ft 438 kts 292°
2026-05-05 14:24 57.07002 -15.30560 34212 ft 438 kts 291°
2026-05-05 14:25 57.09314 -15.40913 34208 ft 438 kts 291°
2026-05-05 14:25 57.11605 -15.51287 34211 ft 438 kts 291°
2026-05-05 14:26 57.13889 -15.61691 34210 ft 438 kts 291°
2026-05-05 14:26 57.16168 -15.72120 34212 ft 439 kts 291°
2026-05-05 14:27 57.18440 -15.82564 34211 ft 439 kts 291°
2026-05-05 14:27 57.20685 -15.92937 34219 ft 438 kts 291°
2026-05-05 14:28 57.22934 -16.03382 34213 ft 438 kts 291°
2026-05-05 14:28 57.25174 -16.13841 34220 ft 438 kts 291°
2026-05-05 14:29 57.27408 -16.24322 34223 ft 438 kts 290°
2026-05-05 14:29 57.29635 -16.34826 34216 ft 440 kts 291°
2026-05-05 14:30 57.31830 -16.45393 34224 ft 440 kts 290°
2026-05-05 14:30 57.34001 -16.55989 34220 ft 440 kts 290°
2026-05-05 14:31 57.36195 -16.66587 34221 ft 441 kts 291°
2026-05-05 14:31 57.38401 -16.77218 34232 ft 443 kts 291°
2026-05-05 14:32 57.40605 -16.87884 34224 ft 443 kts 291°
2026-05-05 14:32 57.42802 -16.98568 34223 ft 443 kts 291°
2026-05-05 14:33 57.44979 -17.09219 34231 ft 445 kts 291°
2026-05-05 14:33 57.47167 -17.19974 34230 ft 445 kts 291°
2026-05-05 14:34 57.49345 -17.30743 34232 ft 445 kts 291°
2026-05-05 14:34 57.51517 -17.41540 34237 ft 445 kts 291°
2026-05-05 14:35 57.53679 -17.52347 34236 ft 445 kts 291°
2026-05-05 14:35 57.55829 -17.63157 34238 ft 445 kts 291°
2026-05-05 14:36 57.57973 -17.73992 34227 ft 446 kts 291°
2026-05-05 14:36 57.60094 -17.84811 34240 ft 447 kts 291°
2026-05-05 14:37 57.62173 -17.95747 34241 ft 447 kts 291°
2026-05-05 14:37 57.64264 -18.06669 34241 ft 447 kts 291°
2026-05-05 14:38 57.66371 -18.17595 34249 ft 447 kts 291°
2026-05-05 14:38 57.68474 -18.28522 34248 ft 447 kts 291°
2026-05-05 14:39 57.70571 -18.39478 34258 ft 447 kts 291°
2026-05-05 14:39 57.72656 -18.50437 34240 ft 447 kts 291°
2026-05-05 14:40 57.74723 -18.61361 34248 ft 448 kts 291°
2026-05-05 14:40 57.76791 -18.72355 34258 ft 448 kts 291°
2026-05-05 14:41 57.78852 -18.83377 34255 ft 448 kts 291°
2026-05-05 14:41 57.80903 -18.94414 34255 ft 448 kts 291°
2026-05-05 14:42 57.82946 -19.05466 34259 ft 448 kts 291°
2026-05-05 14:42 57.84978 -19.16522 34260 ft 448 kts 291°
2026-05-05 14:43 57.86997 -19.27578 34265 ft 447 kts 291°
2026-05-05 14:43 57.88964 -19.38672 34265 ft 447 kts 290°
2026-05-05 14:44 57.90920 -19.49770 34268 ft 447 kts 291°
2026-05-05 14:44 57.92882 -19.60779 34268 ft 447 kts 291°
2026-05-05 14:45 57.94860 -19.71875 34268 ft 447 kts 291°
2026-05-05 14:45 57.96831 -19.82984 34268 ft 447 kts 291°
2026-05-05 14:46 57.98792 -19.94101 34268 ft 447 kts 290°
2026-05-05 14:46 58.00316 -20.05486 34264 ft 452 kts 280°
2026-05-05 14:47 58.00819 -20.17325 34269 ft 453 kts 276°
2026-05-05 14:47 58.01155 -20.29170 34283 ft 452 kts 277°
2026-05-05 14:48 58.01547 -20.41011 34270 ft 452 kts 277°
2026-05-05 14:48 58.01967 -20.52756 34273 ft 452 kts 277°
2026-05-05 14:49 58.02389 -20.64597 34252 ft 452 kts 277°
2026-05-05 14:49 58.02730 -20.74418 34271 ft 451 kts 277°
2026-05-05 14:50 58.03196 -20.88237 34274 ft 452 kts 277°
2026-05-05 14:50 58.03582 -21.00074 34274 ft 452 kts 277°
2026-05-05 14:51 58.03894 -21.09906 34280 ft 452 kts 277°
2026-05-05 14:51 58.04260 -21.21742 34274 ft 452 kts 277°
2026-05-05 14:52 58.04615 -21.33586 34257 ft 452 kts 278°
2026-05-05 14:52 58.04960 -21.45453 34279 ft 453 kts 277°
2026-05-05 14:53 58.05291 -21.57324 34283 ft 453 kts 277°
2026-05-05 14:53 58.05552 -21.69186 34277 ft 451 kts 277°
2026-05-05 14:54 58.05821 -21.80936 34276 ft 451 kts 277°
2026-05-05 14:54 58.06110 -21.92745 34276 ft 450 kts 277°
2026-05-05 14:55 58.06398 -22.04553 34262 ft 452 kts 278°
2026-05-05 14:55 58.06678 -22.16415 34284 ft 452 kts 278°
2026-05-05 14:56 58.06946 -22.28287 34279 ft 452 kts 278°
2026-05-05 14:56 58.07202 -22.40168 34269 ft 452 kts 278°
2026-05-05 14:57 58.07447 -22.52045 34278 ft 452 kts 278°
2026-05-05 14:57 58.07679 -22.63849 34269 ft 452 kts 277°
2026-05-05 14:58 58.07903 -22.75741 34268 ft 453 kts 278°
2026-05-05 14:58 58.08115 -22.87644 34276 ft 453 kts 278°
2026-05-05 14:59 58.08316 -22.99544 34271 ft 453 kts 278°
2026-05-05 14:59 58.08503 -23.11404 34269 ft 449 kts 278°
2026-05-05 15:00 58.08617 -23.21281 34270 ft 449 kts 277°
2026-05-05 15:00 58.08752 -23.34977 34243 ft 448 kts 277°
2026-05-05 15:01 58.08893 -23.46764 34270 ft 448 kts 277°
2026-05-05 15:01 58.09037 -23.58544 34265 ft 448 kts 277°
2026-05-05 15:02 58.09171 -23.70320 34263 ft 448 kts 277°
2026-05-05 15:02 58.09294 -23.82013 34263 ft 448 kts 277°
2026-05-05 15:03 58.09406 -23.93795 34265 ft 448 kts 277°
2026-05-05 15:03 58.09507 -24.05591 34249 ft 449 kts 277°
2026-05-05 15:04 58.09598 -24.17418 34262 ft 450 kts 277°
2026-05-05 15:04 58.09677 -24.29273 34262 ft 450 kts 277°
2026-05-05 15:05 58.09775 -24.47019 34265 ft 450 kts 276°
2026-05-05 15:06 58.09826 -24.58800 34262 ft 447 kts 276°
2026-05-05 15:06 58.09866 -24.70540 34230 ft 447 kts 276°
2026-05-05 15:07 58.09840 -24.82317 34253 ft 449 kts 275°
2026-05-05 15:07 58.09816 -24.94063 34260 ft 449 kts 276°
2026-05-05 15:08 58.09813 -25.05857 34265 ft 449 kts 276°
2026-05-05 15:08 58.09810 -25.17669 34263 ft 449 kts 276°
2026-05-05 15:09 58.09798 -25.29462 34260 ft 449 kts 276°
2026-05-05 15:09 58.09774 -25.41278 34244 ft 449 kts 275°
2026-05-05 15:10 58.09739 -25.53096 34254 ft 450 kts 275°
2026-05-05 15:10 58.09692 -25.64864 34269 ft 450 kts 275°
2026-05-05 15:11 58.09634 -25.76794 34271 ft 451 kts 275°
2026-05-05 15:11 58.09566 -25.88570 34268 ft 451 kts 275°
2026-05-05 15:12 58.09486 -26.00405 34253 ft 449 kts 275°
2026-05-05 15:12 58.09396 -26.12203 34252 ft 449 kts 275°
2026-05-05 15:13 58.09295 -26.23994 34269 ft 449 kts 275°
2026-05-05 15:13 58.09144 -26.35783 34269 ft 449 kts 274°
2026-05-05 15:14 58.08967 -26.47590 34263 ft 449 kts 274°
2026-05-05 15:14 58.08815 -26.59394 34266 ft 449 kts 274°
2026-05-05 15:15 58.08670 -26.71121 34267 ft 449 kts 274°
2026-05-05 15:15 58.08516 -26.82961 34256 ft 451 kts 274°
2026-05-05 15:16 58.08369 -26.93406 34259 ft 451 kts 274°
2026-05-05 15:16 58.08192 -27.05259 34260 ft 451 kts 274°
2026-05-05 15:17 58.08003 -27.17115 34257 ft 451 kts 274°
2026-05-05 15:17 58.07805 -27.28889 34257 ft 451 kts 274°
2026-05-05 15:18 58.07595 -27.40737 34218 ft 450 kts 273°
2026-05-05 15:18 58.07374 -27.52583 34256 ft 452 kts 273°
2026-05-05 15:19 58.07141 -27.64445 34253 ft 452 kts 273°
2026-05-05 15:19 58.06897 -27.76311 34253 ft 452 kts 273°
2026-05-05 15:20 58.06628 -27.88185 34250 ft 452 kts 272°
2026-05-05 15:20 58.06299 -28.00048 34252 ft 452 kts 272°
2026-05-05 15:21 58.05992 -28.11919 34254 ft 453 kts 272°
2026-05-05 15:21 58.05700 -28.23735 34245 ft 454 kts 272°
2026-05-05 15:22 58.05401 -28.35645 34252 ft 454 kts 272°
2026-05-05 15:22 58.05090 -28.47553 34250 ft 454 kts 272°
2026-05-05 15:23 58.04767 -28.59470 34253 ft 454 kts 272°
2026-05-05 15:23 58.04433 -28.71389 34256 ft 454 kts 272°
2026-05-05 15:24 58.04088 -28.83318 34247 ft 456 kts 271°
2026-05-05 15:24 58.03730 -28.95268 34251 ft 456 kts 271°
2026-05-05 15:25 58.03362 -29.07203 34250 ft 456 kts 271°
2026-05-05 15:25 58.02984 -29.19068 34254 ft 456 kts 271°
2026-05-05 15:26 58.02593 -29.31009 34251 ft 456 kts 271°
2026-05-05 15:26 58.02184 -29.42956 34217 ft 456 kts 270°
2026-05-05 15:27 58.01706 -29.54963 34252 ft 460 kts 270°
2026-05-05 15:27 58.01241 -29.66995 34253 ft 460 kts 270°
2026-05-05 15:28 58.00793 -29.79034 34252 ft 460 kts 270°
2026-05-05 15:28 58.00343 -29.91063 34252 ft 460 kts 270°
2026-05-05 15:29 58.00076 -30.03072 34255 ft 456 kts 276°
2026-05-05 15:29 58.00453 -30.14929 34248 ft 456 kts 278°
2026-05-05 15:30 58.00973 -30.26873 34259 ft 457 kts 278°
2026-05-05 15:30 58.01455 -30.38829 34259 ft 458 kts 278°
2026-05-05 15:31 58.01899 -30.50803 34257 ft 458 kts 278°
2026-05-05 15:31 58.02324 -30.62790 34258 ft 458 kts 277°
2026-05-05 15:32 58.02738 -30.74780 34254 ft 458 kts 277°
2026-05-05 15:32 58.03142 -30.86768 34234 ft 458 kts 277°
2026-05-05 15:33 58.03538 -30.98830 34263 ft 461 kts 277°
2026-05-05 15:33 58.03922 -31.10930 34257 ft 462 kts 277°
2026-05-05 15:34 58.04292 -31.22954 34257 ft 462 kts 276°
2026-05-05 15:34 58.04653 -31.35049 34253 ft 462 kts 276°
2026-05-05 15:35 58.05003 -31.47151 34260 ft 462 kts 276°
2026-05-05 15:35 58.05318 -31.59257 34241 ft 462 kts 276°
2026-05-05 15:36 58.05587 -31.71446 34259 ft 465 kts 275°
2026-05-05 15:36 58.05879 -31.83656 34264 ft 465 kts 275°
2026-05-05 15:37 58.06182 -31.95871 34260 ft 465 kts 275°
2026-05-05 15:37 58.06478 -32.08084 34259 ft 465 kts 275°
2026-05-05 15:38 58.06762 -32.20306 34256 ft 466 kts 275°
2026-05-05 15:38 58.07031 -32.32438 34255 ft 466 kts 275°
2026-05-05 15:39 58.07293 -32.44723 34258 ft 469 kts 275°
2026-05-05 15:39 58.07542 -32.57035 34260 ft 469 kts 274°
2026-05-05 15:40 58.07779 -32.69338 34257 ft 469 kts 274°
2026-05-05 15:40 58.08005 -32.81672 34257 ft 470 kts 274°
2026-05-05 15:41 58.08184 -32.91926 34257 ft 470 kts 274°
2026-05-05 15:41 58.08388 -33.04265 34260 ft 470 kts 274°
2026-05-05 15:42 58.08554 -33.16610 34257 ft 470 kts 273°
2026-05-05 15:42 58.08674 -33.28968 34257 ft 470 kts 274°
2026-05-05 15:43 58.08818 -33.41312 34258 ft 470 kts 274°
2026-05-05 15:43 58.08971 -33.53579 34260 ft 470 kts 274°
2026-05-05 15:44 58.09117 -33.65921 34261 ft 470 kts 274°
2026-05-05 15:44 58.09251 -33.78287 34257 ft 470 kts 274°
2026-05-05 15:45 58.09373 -33.90670 34258 ft 473 kts 273°
2026-05-05 15:45 58.09482 -34.03116 34260 ft 474 kts 272°
2026-05-05 15:46 58.09579 -34.15555 34254 ft 474 kts 272°
2026-05-05 15:46 58.09664 -34.28021 34252 ft 474 kts 272°
2026-05-05 15:47 58.09737 -34.40475 34254 ft 474 kts 272°
2026-05-05 15:47 58.09798 -34.52935 34255 ft 475 kts 272°
2026-05-05 15:48 58.09847 -34.65438 34249 ft 477 kts 271°
2026-05-05 15:48 58.09834 -34.78004 34252 ft 478 kts 271°
2026-05-05 15:49 58.09807 -34.90579 34255 ft 478 kts 271°
2026-05-05 15:49 58.09805 -35.03080 34254 ft 478 kts 271°
2026-05-05 15:50 58.09805 -35.15673 34249 ft 478 kts 271°
2026-05-05 15:50 58.09794 -35.28246 34249 ft 478 kts 271°
2026-05-05 15:51 58.09770 -35.40850 34249 ft 480 kts 270°
2026-05-05 15:51 58.09732 -35.53475 34248 ft 480 kts 270°
2026-05-05 15:52 58.09681 -35.66142 34244 ft 482 kts 270°
2026-05-05 15:52 58.09618 -35.78830 34244 ft 483 kts 270°
2026-05-05 15:53 58.09542 -35.91516 34246 ft 483 kts 270°
2026-05-05 15:53 58.09454 -36.04140 34238 ft 483 kts 270°
2026-05-05 15:54 58.09352 -36.16826 34239 ft 483 kts 269°
2026-05-05 15:54 58.09212 -36.29538 34238 ft 484 kts 268°
2026-05-05 15:55 58.09021 -36.42234 34238 ft 484 kts 268°
2026-05-05 15:55 58.08856 -36.54945 34235 ft 484 kts 268°
2026-05-05 15:56 58.08701 -36.67675 34237 ft 486 kts 268°
2026-05-05 15:56 58.08537 -36.80454 34236 ft 486 kts 268°
2026-05-05 15:57 58.08360 -36.93240 34231 ft 487 kts 268°
2026-05-05 15:57 58.08168 -37.06050 34231 ft 487 kts 268°
2026-05-05 15:58 58.07963 -37.18846 34231 ft 488 kts 267°
2026-05-05 15:58 58.07745 -37.31675 34227 ft 488 kts 267°
2026-05-05 15:59 58.07517 -37.44394 34224 ft 488 kts 267°
2026-05-05 15:59 58.07273 -37.57203 34226 ft 488 kts 267°
2026-05-05 16:00 58.07017 -37.70041 34230 ft 490 kts 266°
2026-05-05 16:00 58.06740 -37.82940 34224 ft 491 kts 266°
2026-05-05 16:01 58.06398 -37.95745 34212 ft 491 kts 266°
2026-05-05 16:01 58.06064 -38.08638 34205 ft 491 kts 266°
2026-05-05 16:02 58.05747 -38.21531 34217 ft 491 kts 266°
2026-05-05 16:02 58.05426 -38.34416 34223 ft 492 kts 266°
2026-05-05 16:03 58.05091 -38.47330 34207 ft 492 kts 265°
2026-05-05 16:03 58.04741 -38.60234 34210 ft 492 kts 265°
2026-05-05 16:04 58.04377 -38.73153 34205 ft 493 kts 265°
2026-05-05 16:04 58.04002 -38.86022 34200 ft 494 kts 265°
2026-05-05 16:05 58.03611 -38.98971 34184 ft 494 kts 265°
2026-05-05 16:05 58.03208 -39.11924 34197 ft 495 kts 264°
2026-05-05 16:06 58.02788 -39.24932 34182 ft 497 kts 264°
2026-05-05 16:06 58.02354 -39.37949 34178 ft 497 kts 264°
2026-05-05 16:07 58.01847 -39.50950 34177 ft 497 kts 264°
2026-05-05 16:07 58.01348 -39.63872 34167 ft 497 kts 264°
2026-05-05 16:08 58.00866 -39.76864 34164 ft 497 kts 264°
2026-05-05 16:08 58.00362 -39.89882 34166 ft 498 kts 262°
2026-05-05 16:09 57.99654 -40.02894 34158 ft 498 kts 261°
2026-05-05 16:09 57.98869 -40.15894 34159 ft 498 kts 261°
2026-05-05 16:10 57.98091 -40.28781 34161 ft 499 kts 261°
2026-05-05 16:10 57.97308 -40.41765 34149 ft 499 kts 261°
2026-05-05 16:11 57.96515 -40.54740 34148 ft 498 kts 261°
2026-05-05 16:12 57.94888 -40.80666 34135 ft 498 kts 260°
2026-05-05 16:13 57.92778 -41.13046 34127 ft 498 kts 260°
2026-05-05 16:13 57.91912 -41.25973 34150 ft 498 kts 259°
2026-05-05 16:14 57.90086 -41.51977 34111 ft 503 kts 258°
2026-05-05 16:15 57.88176 -41.77992 34101 ft 504 kts 259°
2026-05-05 16:16 57.86275 -42.04138 34098 ft 509 kts 258°
2026-05-05 16:17 57.84795 -42.23953 34075 ft 512 kts 258°
2026-05-05 16:18 57.83281 -42.43797 34062 ft 512 kts 258°
2026-05-05 16:19 57.81737 -42.63611 34062 ft 512 kts 257°
2026-05-05 16:19 57.80163 -42.83391 34053 ft 515 kts 257°
2026-05-05 16:20 57.77942 -43.09905 34034 ft 514 kts 256°
2026-05-05 16:22 57.75107 -43.43036 34048 ft 517 kts 255°
2026-05-05 16:23 57.72803 -43.69729 34018 ft 519 kts 255°
2026-05-05 16:23 57.71045 -43.89634 34004 ft 519 kts 255°
2026-05-05 16:24 57.69851 -44.02927 34005 ft 519 kts 255°
2026-05-05 16:25 57.68029 -44.22905 34003 ft 523 kts 254°
2026-05-05 16:25 57.66162 -44.43017 33985 ft 524 kts 253°
2026-05-05 16:26 57.63542 -44.69738 33974 ft 523 kts 253°
2026-05-05 16:27 57.62228 -44.83094 34011 ft 525 kts 252°
2026-05-05 16:27 57.60915 -44.96526 33964 ft 527 kts 252°
2026-05-05 16:28 57.59816 -45.07698 33966 ft 527 kts 252°
2026-05-05 16:28 57.58252 -45.23398 33951 ft 527 kts 252°
2026-05-05 16:29 57.57126 -45.34557 33959 ft 527 kts 252°
2026-05-05 16:29 57.55756 -45.47986 33954 ft 528 kts 252°
2026-05-05 16:30 57.54371 -45.61419 33948 ft 529 kts 251°
2026-05-05 16:30 57.52970 -45.74856 33942 ft 529 kts 251°
2026-05-05 16:31 57.51555 -45.88282 33931 ft 529 kts 251°
2026-05-05 16:31 57.50126 -46.01691 33928 ft 528 kts 251°
2026-05-05 16:32 57.48638 -46.14979 33914 ft 528 kts 250°
2026-05-05 16:32 57.47140 -46.28321 33915 ft 526 kts 251°
2026-05-05 16:33 57.45668 -46.41628 33906 ft 526 kts 251°
2026-05-05 16:33 57.44189 -46.54944 33898 ft 527 kts 251°
2026-05-05 16:34 57.42698 -46.68240 33886 ft 526 kts 250°
2026-05-05 16:34 57.41191 -46.81539 33886 ft 526 kts 250°
2026-05-05 16:35 57.39674 -46.94785 33892 ft 520 kts 251°
2026-05-05 16:35 57.38162 -47.07875 33874 ft 518 kts 251°
2026-05-05 16:36 57.36645 -47.20840 33870 ft 517 kts 251°
2026-05-05 16:36 57.35107 -47.33863 33867 ft 517 kts 251°
2026-05-05 16:37 57.33557 -47.46874 33856 ft 517 kts 251°
2026-05-05 16:37 57.31965 -47.59873 33857 ft 518 kts 250°
2026-05-05 16:38 57.30325 -47.72877 33839 ft 519 kts 250°
2026-05-05 16:38 57.28709 -47.85887 33840 ft 519 kts 250°
2026-05-05 16:39 57.27101 -47.98892 33829 ft 519 kts 250°
2026-05-05 16:39 57.25481 -48.11894 33826 ft 519 kts 250°
2026-05-05 16:40 57.23849 -48.24862 33857 ft 519 kts 251°
2026-05-05 16:40 57.22215 -48.37738 33810 ft 514 kts 250°
2026-05-05 16:41 57.20580 -48.50481 33814 ft 513 kts 250°
2026-05-05 16:41 57.18921 -48.63285 33793 ft 514 kts 250°
2026-05-05 16:42 57.17247 -48.76115 33794 ft 514 kts 250°
2026-05-05 16:42 57.15560 -48.88933 33783 ft 514 kts 250°
2026-05-05 16:43 57.14153 -48.99537 33782 ft 511 kts 250°
2026-05-05 16:43 57.12121 -49.14313 33758 ft 509 kts 250°
2026-05-05 16:44 57.10370 -49.26931 33762 ft 509 kts 250°
2026-05-05 16:44 57.08643 -49.39536 33741 ft 509 kts 250°
2026-05-05 16:45 57.06912 -49.52152 33747 ft 509 kts 250°
2026-05-05 16:45 57.05171 -49.64745 33742 ft 508 kts 250°
2026-05-05 16:46 57.03419 -49.77300 33727 ft 507 kts 250°
2026-05-05 16:46 57.01652 -49.89837 33713 ft 507 kts 249°
2026-05-05 16:47 56.99313 -50.01836 33713 ft 500 kts 241°
2026-05-05 16:47 56.96463 -50.13440 33703 ft 499 kts 239°
2026-05-05 16:48 56.93588 -50.25015 33708 ft 499 kts 240°
2026-05-05 16:48 56.90764 -50.36611 33683 ft 498 kts 241°
2026-05-05 16:49 56.87951 -50.48218 33685 ft 498 kts 241°
2026-05-05 16:49 56.85132 -50.59799 33670 ft 498 kts 240°
2026-05-05 16:50 56.82319 -50.71282 33672 ft 498 kts 240°
2026-05-05 16:50 56.79480 -50.82804 33672 ft 496 kts 241°
2026-05-05 16:51 56.76642 -50.94265 33657 ft 496 kts 241°
2026-05-05 16:51 56.73787 -51.05728 33641 ft 496 kts 241°
2026-05-05 16:52 56.70928 -51.17150 33644 ft 495 kts 241°
2026-05-05 16:52 56.68059 -51.28554 33630 ft 495 kts 240°
2026-05-05 16:53 56.65167 -51.39812 33631 ft 493 kts 240°
2026-05-05 16:53 56.62254 -51.51078 33617 ft 492 kts 241°
2026-05-05 16:54 56.59357 -51.62364 33618 ft 492 kts 241°
2026-05-05 16:54 56.56465 -51.73627 33606 ft 492 kts 241°
2026-05-05 16:55 56.53568 -51.84862 33610 ft 492 kts 241°
2026-05-05 16:55 56.50661 -51.96074 33590 ft 490 kts 241°
2026-05-05 16:56 56.47755 -52.07223 33593 ft 489 kts 241°
2026-05-05 16:56 56.44839 -52.18352 33585 ft 489 kts 241°
2026-05-05 16:57 56.41932 -52.29393 33579 ft 489 kts 241°
2026-05-05 16:57 56.38997 -52.40489 33574 ft 489 kts 241°
2026-05-05 16:58 56.36055 -52.51553 33564 ft 487 kts 241°
2026-05-05 16:58 56.33120 -52.62542 33554 ft 486 kts 240°
2026-05-05 16:59 56.30150 -52.73481 33545 ft 486 kts 240°
2026-05-05 16:59 56.27154 -52.84380 33561 ft 486 kts 240°
2026-05-05 17:00 56.24194 -52.95227 33565 ft 486 kts 241°
2026-05-05 17:00 56.21222 -53.06137 33545 ft 485 kts 240°
2026-05-05 17:01 56.18247 -53.17015 33542 ft 485 kts 241°
2026-05-05 17:01 56.15263 -53.27883 33543 ft 485 kts 240°
2026-05-05 17:02 56.12266 -53.38730 33533 ft 485 kts 241°
2026-05-05 17:02 56.09260 -53.49551 33533 ft 486 kts 241°
2026-05-05 17:03 56.06236 -53.60387 33525 ft 487 kts 240°
2026-05-05 17:03 56.03221 -53.71151 33525 ft 487 kts 241°
2026-05-05 17:04 56.00177 -53.81964 33519 ft 486 kts 241°
2026-05-05 17:04 55.97124 -53.92752 33520 ft 486 kts 240°
2026-05-05 17:05 55.94046 -54.03527 33515 ft 485 kts 241°
2026-05-05 17:05 55.90942 -54.14188 33509 ft 483 kts 241°
2026-05-05 17:06 55.87906 -54.24688 33506 ft 484 kts 240°
2026-05-05 17:06 55.84883 -54.35205 33503 ft 483 kts 240°
2026-05-05 17:07 55.81798 -54.45838 33500 ft 483 kts 239°
2026-05-05 17:07 55.78712 -54.56424 33501 ft 480 kts 240°
2026-05-05 17:08 55.75663 -54.66858 33491 ft 478 kts 240°
2026-05-05 17:08 55.72592 -54.77335 33493 ft 480 kts 239°
2026-05-05 17:09 55.69489 -54.87861 33493 ft 481 kts 240°
2026-05-05 17:09 55.66383 -54.98350 33485 ft 481 kts 239°
2026-05-05 17:10 55.63269 -55.08823 33485 ft 479 kts 240°
2026-05-05 17:10 55.60158 -55.19244 33483 ft 479 kts 240°
2026-05-05 17:11 55.57036 -55.29652 33485 ft 478 kts 240°
2026-05-05 17:11 55.53867 -55.40003 33483 ft 478 kts 239°
2026-05-05 17:12 55.50719 -55.50256 33479 ft 478 kts 240°
2026-05-05 17:12 55.47568 -55.60583 33480 ft 477 kts 240°
2026-05-05 17:13 55.44425 -55.70877 33480 ft 477 kts 240°
2026-05-05 17:13 55.41275 -55.81156 33478 ft 477 kts 240°
2026-05-05 17:14 55.38114 -55.91420 33478 ft 477 kts 240°
2026-05-05 17:14 55.34943 -56.01672 33476 ft 478 kts 240°
2026-05-05 17:15 55.31762 -56.11908 33479 ft 477 kts 240°
2026-05-05 17:15 55.28578 -56.22114 33479 ft 477 kts 240°
2026-05-05 17:16 55.25407 -56.32233 33476 ft 476 kts 240°
2026-05-05 17:16 55.22208 -56.42400 33475 ft 476 kts 240°
2026-05-05 17:17 55.19522 -56.50903 33472 ft 476 kts 240°
2026-05-05 17:17 55.16306 -56.61022 33473 ft 474 kts 240°
2026-05-05 17:18 55.13080 -56.70971 33475 ft 474 kts 240°
2026-05-05 17:18 55.09841 -56.80994 33475 ft 474 kts 240°
2026-05-05 17:19 55.06615 -56.91021 33476 ft 474 kts 240°
2026-05-05 17:19 55.03398 -57.01049 33475 ft 474 kts 242°
2026-05-05 17:20 55.01048 -57.11728 33473 ft 471 kts 253°
2026-05-05 17:20 54.99322 -57.22742 33474 ft 472 kts 255°
2026-05-05 17:21 54.97602 -57.33804 33510 ft 474 kts 254°
2026-05-05 17:21 54.96710 -57.39329 33817 ft 473 kts 253°
2026-05-05 17:22 54.94893 -57.50337 34330 ft 474 kts 253°
2026-05-05 17:22 54.93984 -57.55780 34567 ft 474 kts 253°
2026-05-05 17:22 54.93060 -57.61290 34805 ft 475 kts 253°
2026-05-05 17:22 54.92135 -57.66793 35030 ft 475 kts 253°
2026-05-05 17:23 54.91211 -57.72276 35328 ft 473 kts 253°
2026-05-05 17:23 54.90282 -57.77770 35434 ft 473 kts 253°
2026-05-05 17:23 54.89352 -57.83257 35458 ft 473 kts 253°
2026-05-05 17:24 54.87486 -57.94223 35469 ft 473 kts 253°
2026-05-05 17:24 54.85607 -58.05189 35462 ft 474 kts 253°
2026-05-05 17:25 54.83720 -58.16139 35461 ft 474 kts 253°
2026-05-05 17:25 54.81817 -58.27112 35463 ft 474 kts 253°
2026-05-05 17:26 54.79920 -58.37976 35447 ft 471 kts 253°
2026-05-05 17:26 54.77984 -58.48766 35448 ft 469 kts 252°
2026-05-05 17:27 54.76040 -58.59516 35443 ft 468 kts 252°
2026-05-05 17:27 54.74112 -58.70293 35444 ft 468 kts 252°
2026-05-05 17:28 54.72188 -58.81061 35446 ft 467 kts 252°
2026-05-05 17:28 54.70255 -58.91818 35442 ft 468 kts 252°
2026-05-05 17:29 54.68315 -59.02546 35438 ft 469 kts 252°
2026-05-05 17:29 54.66361 -59.13292 35438 ft 469 kts 252°
2026-05-05 17:30 54.64399 -59.24014 35446 ft 467 kts 252°
2026-05-05 17:30 54.62430 -59.34712 35444 ft 467 kts 252°
2026-05-05 17:31 54.60462 -59.45344 35446 ft 467 kts 252°
2026-05-05 17:31 54.58475 -59.56020 35447 ft 468 kts 252°
2026-05-05 17:32 54.56479 -59.66674 35452 ft 466 kts 252°
2026-05-05 17:32 54.54477 -59.77298 35450 ft 466 kts 252°
2026-05-05 17:33 54.52421 -59.87883 35456 ft 466 kts 251°
2026-05-05 17:33 54.50369 -59.98474 35448 ft 465 kts 252°
2026-05-05 17:34 54.48594 -60.09105 35455 ft 465 kts 258°
2026-05-05 17:34 54.47410 -60.20060 35460 ft 466 kts 260°
2026-05-05 17:35 54.46328 -60.31025 35451 ft 464 kts 260°
2026-05-05 17:35 54.45204 -60.41934 35469 ft 463 kts 260°
2026-05-05 17:36 54.44046 -60.52825 35466 ft 463 kts 259°
2026-05-05 17:36 54.42872 -60.63701 35473 ft 463 kts 259°
2026-05-05 17:37 54.41688 -60.74576 35466 ft 462 kts 259°
2026-05-05 17:37 54.40496 -60.85440 35479 ft 463 kts 259°
2026-05-05 17:38 54.39293 -60.96303 35472 ft 464 kts 259°
2026-05-05 17:38 54.38090 -61.07078 35484 ft 461 kts 259°
2026-05-05 17:39 54.36875 -61.17869 35482 ft 460 kts 259°
2026-05-05 17:39 54.35650 -61.28659 35484 ft 461 kts 259°
2026-05-05 17:40 54.34418 -61.39417 35496 ft 460 kts 259°
2026-05-05 17:40 54.33144 -61.50178 35494 ft 460 kts 258°
2026-05-05 17:41 54.31844 -61.60920 35496 ft 461 kts 259°
2026-05-05 17:41 54.30565 -61.71664 35503 ft 461 kts 259°
2026-05-05 17:42 54.29292 -61.82402 35494 ft 459 kts 259°
2026-05-05 17:42 54.28018 -61.93089 35505 ft 458 kts 259°
2026-05-05 17:43 54.26736 -62.03751 35515 ft 458 kts 259°
2026-05-05 17:43 54.25451 -62.14350 35514 ft 458 kts 259°
2026-05-05 17:44 54.24149 -62.25000 35514 ft 458 kts 258°
2026-05-05 17:44 54.22837 -62.35653 35520 ft 457 kts 258°
2026-05-05 17:45 54.21517 -62.46288 35521 ft 458 kts 258°
2026-05-05 17:45 54.20184 -62.56942 35505 ft 459 kts 258°
2026-05-05 17:46 54.18850 -62.67517 35519 ft 454 kts 258°
2026-05-05 17:46 54.17512 -62.78053 35520 ft 453 kts 258°
2026-05-05 17:47 54.16141 -62.88549 35523 ft 453 kts 257°
2026-05-05 17:47 54.14739 -62.99036 35523 ft 453 kts 257°
2026-05-05 17:48 54.13358 -63.09526 35523 ft 453 kts 258°
2026-05-05 17:48 54.11985 -63.20000 35522 ft 452 kts 257°
2026-05-05 17:49 54.10617 -63.30386 35520 ft 452 kts 257°
2026-05-05 17:49 54.09238 -63.40777 35518 ft 447 kts 257°
2026-05-05 17:50 54.07858 -63.51101 35517 ft 447 kts 257°
2026-05-05 17:50 54.06470 -63.61409 35514 ft 446 kts 257°
2026-05-05 17:51 54.05074 -63.71703 35514 ft 446 kts 257°
2026-05-05 17:51 54.03668 -63.81999 35516 ft 446 kts 257°
2026-05-05 17:52 54.02254 -63.92282 35513 ft 447 kts 256°
2026-05-05 17:52 54.00830 -64.02566 35513 ft 447 kts 256°
2026-05-05 17:53 53.99406 -64.12782 35498 ft 444 kts 256°
2026-05-05 17:53 53.97966 -64.22970 35504 ft 443 kts 256°
2026-05-05 17:54 53.96475 -64.33143 35502 ft 443 kts 256°
2026-05-05 17:54 53.95002 -64.43304 35500 ft 443 kts 256°
2026-05-05 17:55 53.93543 -64.53450 35504 ft 444 kts 256°
2026-05-05 17:55 53.92076 -64.63637 35501 ft 445 kts 256°
2026-05-05 17:56 53.90596 -64.73838 35497 ft 445 kts 256°
2026-05-05 17:56 53.89110 -64.84017 35485 ft 445 kts 256°
2026-05-05 17:57 53.87612 -64.94206 35486 ft 445 kts 256°
2026-05-05 17:57 53.86117 -65.04312 35492 ft 445 kts 256°
2026-05-05 17:58 53.84601 -65.14489 35487 ft 445 kts 256°
2026-05-05 17:58 53.83076 -65.24672 35482 ft 447 kts 255°
2026-05-05 17:59 53.81540 -65.34857 35487 ft 447 kts 255°
2026-05-05 17:59 53.79993 -65.45047 35485 ft 447 kts 255°
2026-05-05 18:00 53.78438 -65.55226 35480 ft 447 kts 255°
2026-05-05 18:00 53.76839 -65.65364 35484 ft 446 kts 255°
2026-05-05 18:01 53.75236 -65.75458 35480 ft 446 kts 255°
2026-05-05 18:01 53.73649 -65.85572 35477 ft 445 kts 255°
2026-05-05 18:02 53.72063 -65.95697 35482 ft 446 kts 254°
2026-05-05 18:02 53.70469 -66.05817 35475 ft 446 kts 254°
2026-05-05 18:03 53.68876 -66.15869 35478 ft 446 kts 254°
2026-05-05 18:03 53.67266 -66.25971 35478 ft 446 kts 254°
2026-05-05 18:04 53.65645 -66.36070 35478 ft 446 kts 254°
2026-05-05 18:04 53.64016 -66.46166 35483 ft 446 kts 254°
2026-05-05 18:05 53.62378 -66.56249 35482 ft 447 kts 253°
2026-05-05 18:05 53.60995 -66.64722 35477 ft 448 kts 253°
2026-05-05 18:06 53.59347 -66.74757 35482 ft 448 kts 253°
2026-05-05 18:06 53.57679 -66.84862 35482 ft 448 kts 253°
2026-05-05 18:07 53.55993 -66.94952 35484 ft 448 kts 253°
2026-05-05 18:07 53.54259 -67.05006 35483 ft 446 kts 253°
2026-05-05 18:08 53.52552 -67.15007 35484 ft 444 kts 253°
2026-05-05 18:08 53.50859 -67.24990 35488 ft 445 kts 252°
2026-05-05 18:09 53.49161 -67.34982 35483 ft 444 kts 252°
2026-05-05 18:09 53.47455 -67.44963 35485 ft 444 kts 252°
2026-05-05 18:10 53.45744 -67.54916 35482 ft 444 kts 252°
2026-05-05 18:10 53.44024 -67.64865 35485 ft 444 kts 252°
2026-05-05 18:11 53.42385 -67.74286 35483 ft 444 kts 252°
2026-05-05 18:11 53.40645 -67.84245 35483 ft 438 kts 252°
2026-05-05 18:12 53.38920 -67.94059 35483 ft 439 kts 252°
2026-05-05 18:12 53.37195 -68.03813 35483 ft 439 kts 252°
2026-05-05 18:13 53.35451 -68.13628 35473 ft 439 kts 252°
2026-05-05 18:13 53.33698 -68.23435 35476 ft 439 kts 251°
2026-05-05 18:14 53.31909 -68.33199 35474 ft 439 kts 251°
2026-05-05 18:14 53.30102 -68.42961 35468 ft 439 kts 251°
2026-05-05 18:15 53.28317 -68.52711 35469 ft 436 kts 251°
2026-05-05 18:15 53.26547 -68.62398 35467 ft 436 kts 251°
2026-05-05 18:16 53.24770 -68.72085 35467 ft 436 kts 251°
2026-05-05 18:16 53.22986 -68.81752 35469 ft 436 kts 251°
2026-05-05 18:17 53.21194 -68.91419 35469 ft 436 kts 251°
2026-05-05 18:17 53.19406 -69.01008 35466 ft 436 kts 251°
2026-05-05 18:18 53.17599 -69.10652 35470 ft 436 kts 251°
2026-05-05 18:18 53.15779 -69.20311 35470 ft 437 kts 250°
2026-05-05 18:19 53.13953 -69.29957 35473 ft 436 kts 250°
2026-05-05 18:19 53.12122 -69.39582 35472 ft 436 kts 250°
2026-05-05 18:20 53.10284 -69.49190 35467 ft 436 kts 250°
2026-05-05 18:20 53.08434 -69.58801 35464 ft 436 kts 250°
2026-05-05 18:21 53.06536 -69.68369 35464 ft 436 kts 250°
2026-05-05 18:21 53.04645 -69.77932 35464 ft 436 kts 250°
2026-05-05 18:22 53.02768 -69.87502 35466 ft 440 kts 250°
2026-05-05 18:22 53.00880 -69.97131 35462 ft 437 kts 250°
2026-05-05 18:23 52.98987 -70.06738 35459 ft 437 kts 250°
2026-05-05 18:23 52.97097 -70.16330 35456 ft 437 kts 251°
2026-05-05 18:24 52.95472 -70.26070 35459 ft 438 kts 253°
2026-05-05 18:24 52.93998 -70.35882 35460 ft 438 kts 253°
2026-05-05 18:25 52.92524 -70.45690 35464 ft 442 kts 253°
2026-05-05 18:25 52.91016 -70.55579 35453 ft 443 kts 253°
2026-05-05 18:26 52.89495 -70.65458 35445 ft 439 kts 253°
2026-05-05 18:26 52.87980 -70.75231 35450 ft 437 kts 253°
2026-05-05 18:27 52.86467 -70.84920 35448 ft 437 kts 253°
2026-05-05 18:27 52.84940 -70.94651 35446 ft 437 kts 253°
2026-05-05 18:28 52.82618 -71.09326 35452 ft 443 kts 252°
2026-05-05 18:28 52.81044 -71.19208 35445 ft 445 kts 252°
2026-05-05 18:29 52.79462 -71.29085 35445 ft 445 kts 252°
2026-05-05 18:29 52.77871 -71.38956 35439 ft 445 kts 252°
2026-05-05 18:30 52.76276 -71.48790 35438 ft 442 kts 252°
2026-05-05 18:30 52.74633 -71.58571 35441 ft 442 kts 252°
2026-05-05 18:31 52.73001 -71.68307 35434 ft 445 kts 252°
2026-05-05 18:31 52.71363 -71.78175 35437 ft 446 kts 252°
2026-05-05 18:32 52.69728 -71.88033 35424 ft 446 kts 252°
2026-05-05 18:32 52.68082 -71.97899 35427 ft 446 kts 252°
2026-05-05 18:33 52.66430 -72.07746 35425 ft 446 kts 252°
2026-05-05 18:33 52.64768 -72.17589 35421 ft 446 kts 252°
2026-05-05 18:34 52.63097 -72.27429 35429 ft 448 kts 252°
2026-05-05 18:34 52.61410 -72.37310 35416 ft 448 kts 252°
2026-05-05 18:35 52.59714 -72.47188 35412 ft 448 kts 252°
2026-05-05 18:35 52.58011 -72.57052 35409 ft 449 kts 252°
2026-05-05 18:36 52.56310 -72.66848 35409 ft 448 kts 251°
2026-05-05 18:36 52.54588 -72.76709 35410 ft 448 kts 251°
2026-05-05 18:37 52.52829 -72.86571 35411 ft 452 kts 251°
2026-05-05 18:37 52.51033 -72.96479 35404 ft 452 kts 251°
2026-05-05 18:38 52.49265 -73.06344 35527 ft 449 kts 251°
2026-05-05 18:38 52.48385 -73.11272 35773 ft 450 kts 251°
2026-05-05 18:38 52.47503 -73.16208 36003 ft 451 kts 251°
2026-05-05 18:39 52.46627 -73.21092 36214 ft 452 kts 251°
2026-05-05 18:39 52.45739 -73.26040 36427 ft 452 kts 251°
2026-05-05 18:39 52.44846 -73.30993 36638 ft 453 kts 251°
2026-05-05 18:39 52.43954 -73.35929 36827 ft 454 kts 251°
2026-05-05 18:40 52.43054 -73.40899 37029 ft 455 kts 251°
2026-05-05 18:40 52.42148 -73.45881 37150 ft 457 kts 251°
2026-05-05 18:40 52.41240 -73.50869 37349 ft 458 kts 251°
2026-05-05 18:40 52.40325 -73.55875 37381 ft 459 kts 251°
2026-05-05 18:41 52.38490 -73.65882 37391 ft 459 kts 251°
2026-05-05 18:41 52.36643 -73.75893 37393 ft 459 kts 251°
2026-05-05 18:42 52.34799 -73.85838 37394 ft 459 kts 251°
2026-05-05 18:42 52.32937 -73.95824 37387 ft 459 kts 251°
2026-05-05 18:43 52.31056 -74.05858 37392 ft 462 kts 251°
2026-05-05 18:43 52.29141 -74.15905 37394 ft 462 kts 251°
2026-05-05 18:44 52.27197 -74.25905 37395 ft 462 kts 251°
2026-05-05 18:44 52.25270 -74.35918 37396 ft 462 kts 251°
2026-05-05 18:45 52.23364 -74.45862 37393 ft 462 kts 251°
2026-05-05 18:45 52.21753 -74.54240 37389 ft 460 kts 251°
2026-05-05 18:46 52.19523 -74.65772 37398 ft 458 kts 251°
2026-05-05 18:46 52.17595 -74.75683 37402 ft 458 kts 251°
2026-05-05 18:47 52.15660 -74.85579 37399 ft 458 kts 250°
2026-05-05 18:47 52.13716 -74.95469 37404 ft 458 kts 250°
2026-05-05 18:48 52.11775 -75.05295 37400 ft 458 kts 250°
2026-05-05 18:48 52.09814 -75.15169 37418 ft 460 kts 250°
2026-05-05 18:49 52.07834 -75.25088 37408 ft 461 kts 250°
2026-05-05 18:49 52.05856 -75.34952 37425 ft 458 kts 250°
2026-05-05 18:50 52.03855 -75.44772 37431 ft 457 kts 250°
2026-05-05 18:50 52.01823 -75.54559 37430 ft 457 kts 250°
2026-05-05 18:51 51.99810 -75.64346 37446 ft 457 kts 250°
2026-05-05 18:51 51.97799 -75.74160 37454 ft 459 kts 250°
2026-05-05 18:52 51.95792 -75.83925 37459 ft 460 kts 250°
2026-05-05 18:52 51.93764 -75.93741 37450 ft 459 kts 250°
2026-05-05 18:53 51.91725 -76.03555 37447 ft 457 kts 250°
2026-05-05 18:53 51.89691 -76.13304 37460 ft 456 kts 250°
2026-05-05 18:54 51.87997 -76.21382 37459 ft 456 kts 250°
2026-05-05 18:54 51.85615 -76.32684 37455 ft 458 kts 250°
2026-05-05 18:55 51.83550 -76.42433 37453 ft 458 kts 250°
2026-05-05 18:55 51.81812 -76.50604 37455 ft 458 kts 249°
2026-05-05 18:56 51.79745 -76.60280 37458 ft 458 kts 249°
2026-05-05 18:56 51.77647 -76.70006 37463 ft 458 kts 249°
2026-05-05 18:57 51.75509 -76.79682 37458 ft 457 kts 249°
2026-05-05 18:57 51.73378 -76.89394 37470 ft 459 kts 249°
2026-05-05 18:58 51.71257 -76.99110 37475 ft 460 kts 249°
2026-05-05 18:58 51.69131 -77.08831 37475 ft 460 kts 249°
2026-05-05 18:59 51.66994 -77.18555 37479 ft 459 kts 249°
2026-05-05 18:59 51.64866 -77.28191 37478 ft 459 kts 249°
2026-05-05 19:00 51.62716 -77.37878 37493 ft 460 kts 249°
2026-05-05 19:00 51.60556 -77.47565 37489 ft 460 kts 249°
2026-05-05 19:01 51.58386 -77.57253 37490 ft 459 kts 249°
2026-05-05 19:01 51.56209 -77.66928 37490 ft 459 kts 248°
2026-05-05 19:02 51.54033 -77.76551 37496 ft 460 kts 248°
2026-05-05 19:02 51.51844 -77.86193 37496 ft 460 kts 248°
2026-05-05 19:03 51.49632 -77.95848 37500 ft 461 kts 248°
2026-05-05 19:03 51.47384 -78.05434 37494 ft 462 kts 248°
2026-05-05 19:04 51.45134 -78.15093 37492 ft 462 kts 248°
2026-05-05 19:04 51.42900 -78.24734 37492 ft 461 kts 248°
2026-05-05 19:05 51.40665 -78.34359 37495 ft 461 kts 248°
2026-05-05 19:05 51.38424 -78.43962 37495 ft 461 kts 248°
2026-05-05 19:06 51.36168 -78.53585 37500 ft 462 kts 248°
2026-05-05 19:06 51.33898 -78.63224 37498 ft 463 kts 248°
2026-05-05 19:07 51.31622 -78.72846 37501 ft 463 kts 248°
2026-05-05 19:07 51.29338 -78.82458 37497 ft 463 kts 248°
2026-05-05 19:08 51.27046 -78.92059 37502 ft 461 kts 248°
2026-05-05 19:08 51.24775 -79.01533 37510 ft 460 kts 248°
2026-05-05 19:09 51.22485 -79.11045 37507 ft 460 kts 248°
2026-05-05 19:09 51.20177 -79.20547 37511 ft 460 kts 247°
2026-05-05 19:10 51.17829 -79.30007 37509 ft 459 kts 247°
2026-05-05 19:10 51.15493 -79.39484 37509 ft 459 kts 248°
2026-05-05 19:11 51.13168 -79.48955 37508 ft 460 kts 248°
2026-05-05 19:11 51.10837 -79.58431 37503 ft 460 kts 248°
2026-05-05 19:12 51.08502 -79.67887 37511 ft 458 kts 248°
2026-05-05 19:12 51.06163 -79.77311 37511 ft 458 kts 247°
2026-05-05 19:13 51.03815 -79.86732 37511 ft 458 kts 247°
2026-05-05 19:13 51.01462 -79.96131 37512 ft 458 kts 247°
2026-05-05 19:14 50.99116 -80.05463 37515 ft 458 kts 247°
2026-05-05 19:14 50.96748 -80.14846 37516 ft 458 kts 247°
2026-05-05 19:15 50.94482 -80.24315 37518 ft 459 kts 250°
2026-05-05 19:15 50.92532 -80.33931 37517 ft 458 kts 251°
2026-05-05 19:16 50.90654 -80.43566 37523 ft 458 kts 251°
2026-05-05 19:16 50.88762 -80.53177 37522 ft 457 kts 251°
2026-05-05 19:17 50.86844 -80.62800 37529 ft 458 kts 251°
2026-05-05 19:17 50.84924 -80.72366 37524 ft 459 kts 251°
2026-05-05 19:18 50.82982 -80.81998 37531 ft 459 kts 251°
2026-05-05 19:18 50.81033 -80.91611 37531 ft 459 kts 251°
2026-05-05 19:19 50.79076 -81.01225 37534 ft 460 kts 251°
2026-05-05 19:19 50.77111 -81.10827 37541 ft 461 kts 251°
2026-05-05 19:20 50.75133 -81.20445 37534 ft 461 kts 251°
2026-05-05 19:20 50.73145 -81.30068 37545 ft 460 kts 251°
2026-05-05 19:21 50.71162 -81.39621 37543 ft 459 kts 251°
2026-05-05 19:21 50.69142 -81.49199 37544 ft 460 kts 251°
2026-05-05 19:22 50.67090 -81.58768 37557 ft 460 kts 251°
2026-05-05 19:22 50.65058 -81.68335 37552 ft 460 kts 251°
2026-05-05 19:23 50.63034 -81.77887 37551 ft 461 kts 251°
2026-05-05 19:23 50.61003 -81.87445 37549 ft 460 kts 251°
2026-05-05 19:24 50.58964 -81.96991 37551 ft 460 kts 251°
2026-05-05 19:24 50.56919 -82.06519 37552 ft 459 kts 251°
2026-05-05 19:25 50.54885 -82.15956 37553 ft 459 kts 251°
2026-05-05 19:25 50.52821 -82.25481 37550 ft 458 kts 251°
2026-05-05 19:26 50.50755 -82.34972 37561 ft 458 kts 251°
2026-05-05 19:26 50.48683 -82.44448 37560 ft 459 kts 251°
2026-05-05 19:27 50.46605 -82.53910 37562 ft 459 kts 251°
2026-05-05 19:27 50.44519 -82.63361 37575 ft 459 kts 251°
2026-05-05 19:28 50.42405 -82.72804 37569 ft 460 kts 250°
2026-05-05 19:28 50.40263 -82.82218 37570 ft 459 kts 250°
2026-05-05 19:29 50.38138 -82.91638 37578 ft 458 kts 251°
2026-05-05 19:29 50.36020 -83.01056 37581 ft 458 kts 251°
2026-05-05 19:30 50.33909 -83.10412 37586 ft 459 kts 251°
2026-05-05 19:30 50.31772 -83.19842 37584 ft 460 kts 250°
2026-05-05 19:31 50.29625 -83.29268 37586 ft 460 kts 250°
2026-05-05 19:31 50.27515 -83.38493 37589 ft 460 kts 250°
2026-05-05 19:32 50.25352 -83.47908 37590 ft 460 kts 250°
2026-05-05 19:32 50.23182 -83.57310 37599 ft 459 kts 250°
2026-05-05 19:33 50.21012 -83.66671 37598 ft 458 kts 250°
2026-05-05 19:33 50.18836 -83.76015 37599 ft 458 kts 250°
2026-05-05 19:34 50.16653 -83.85350 37603 ft 458 kts 250°
2026-05-05 19:35 50.13341 -83.99255 37606 ft 458 kts 250°
2026-05-05 19:35 50.11110 -84.08553 37606 ft 458 kts 250°
2026-05-05 19:36 50.08892 -84.17857 37617 ft 458 kts 250°
2026-05-05 19:36 50.06676 -84.27156 37617 ft 458 kts 250°
2026-05-05 19:37 50.04455 -84.36434 37613 ft 456 kts 250°
2026-05-05 19:37 50.02233 -84.45678 37616 ft 456 kts 250°
2026-05-05 19:38 50.00004 -84.54906 37626 ft 456 kts 250°
2026-05-05 19:38 49.97769 -84.64123 37624 ft 456 kts 250°
2026-05-05 19:39 49.95523 -84.73346 37627 ft 456 kts 250°
2026-05-05 19:39 49.93287 -84.82491 37631 ft 456 kts 250°
2026-05-05 19:40 49.91032 -84.91672 37636 ft 456 kts 250°
2026-05-05 19:40 49.88767 -85.00859 37641 ft 456 kts 250°
2026-05-05 19:41 49.86492 -85.10046 37619 ft 456 kts 250°
2026-05-05 19:41 49.84182 -85.19181 37645 ft 455 kts 249°
2026-05-05 19:42 49.81868 -85.28307 37643 ft 454 kts 249°
2026-05-05 19:42 49.79572 -85.37424 37644 ft 454 kts 249°
2026-05-05 19:43 49.77666 -85.45000 37650 ft 454 kts 249°
2026-05-05 19:43 49.74990 -85.55595 37658 ft 455 kts 249°
2026-05-05 19:44 49.72678 -85.64708 37658 ft 455 kts 249°
2026-05-05 19:44 49.70360 -85.73804 37669 ft 455 kts 249°
2026-05-05 19:45 49.68425 -85.81369 37670 ft 455 kts 249°
2026-05-05 19:45 49.66094 -85.90453 37668 ft 454 kts 249°
2026-05-05 19:46 49.63762 -85.99499 37672 ft 453 kts 249°
2026-05-05 19:46 49.61423 -86.08538 37682 ft 453 kts 249°
2026-05-05 19:47 49.59081 -86.17557 37682 ft 453 kts 249°
2026-05-05 19:47 49.56731 -86.26567 37687 ft 453 kts 249°
2026-05-05 19:48 49.54355 -86.35557 37694 ft 453 kts 249°
2026-05-05 19:48 49.51952 -86.44533 37694 ft 454 kts 249°
2026-05-05 19:49 49.49573 -86.53486 37696 ft 455 kts 249°
2026-05-05 19:49 49.47184 -86.62496 37693 ft 454 kts 249°
2026-05-05 19:50 49.44795 -86.71457 37707 ft 452 kts 248°
2026-05-05 19:50 49.42396 -86.80398 37714 ft 452 kts 248°
2026-05-05 19:51 49.39998 -86.89327 37714 ft 453 kts 248°
2026-05-05 19:51 49.37587 -86.98288 37724 ft 454 kts 248°
2026-05-05 19:52 49.35166 -87.07248 37724 ft 455 kts 248°
2026-05-05 19:52 49.32755 -87.16141 37730 ft 454 kts 248°
2026-05-05 19:53 49.30318 -87.25091 37730 ft 454 kts 248°
2026-05-05 19:53 49.27879 -87.34019 37735 ft 454 kts 248°
2026-05-05 19:54 49.25430 -87.42947 37739 ft 454 kts 248°
2026-05-05 19:54 49.22962 -87.51863 37738 ft 454 kts 247°
2026-05-05 19:55 49.20470 -87.60714 37740 ft 454 kts 247°
2026-05-05 19:55 49.18003 -87.69531 37740 ft 454 kts 247°
2026-05-05 19:56 49.15529 -87.78402 37746 ft 454 kts 247°
2026-05-05 19:56 49.13045 -87.87291 37743 ft 456 kts 248°
2026-05-05 19:57 49.10549 -87.96191 37741 ft 456 kts 247°
2026-05-05 19:57 49.08045 -88.05082 37744 ft 456 kts 247°
2026-05-05 19:58 49.05534 -88.13967 37752 ft 455 kts 247°
2026-05-05 19:58 49.03027 -88.22801 37751 ft 453 kts 247°
2026-05-05 19:59 49.00515 -88.31621 37749 ft 453 kts 247°
2026-05-05 19:59 48.98015 -88.40369 37751 ft 454 kts 247°
2026-05-05 20:00 48.95489 -88.49172 37761 ft 454 kts 247°
2026-05-05 20:00 48.92958 -88.57961 37769 ft 453 kts 247°
2026-05-05 20:01 48.90415 -88.66741 37781 ft 453 kts 247°
2026-05-05 20:01 48.87828 -88.75500 37768 ft 454 kts 247°
2026-05-05 20:02 48.85251 -88.84268 37781 ft 454 kts 247°
2026-05-05 20:02 48.82683 -88.93039 37785 ft 454 kts 247°
2026-05-05 20:03 48.80115 -89.01797 37808 ft 454 kts 247°
2026-05-05 20:03 48.77558 -89.10488 37806 ft 454 kts 247°
2026-05-05 20:04 48.74978 -89.19224 37817 ft 453 kts 247°
2026-05-05 20:04 48.72396 -89.27935 37813 ft 453 kts 247°
2026-05-05 20:05 48.69809 -89.36631 37808 ft 453 kts 247°
2026-05-05 20:05 48.67212 -89.45329 37805 ft 453 kts 247°
2026-05-05 20:06 48.64613 -89.54003 37806 ft 453 kts 247°
2026-05-05 20:06 48.62015 -89.62644 37821 ft 451 kts 247°
2026-05-05 20:07 48.59383 -89.71243 37812 ft 451 kts 245°
2026-05-05 20:07 48.56520 -89.79686 37824 ft 451 kts 244°
2026-05-05 20:08 48.53603 -89.88080 37817 ft 452 kts 244°
2026-05-05 20:08 48.50698 -89.96486 37820 ft 451 kts 244°
2026-05-05 20:09 48.47800 -90.04892 37831 ft 451 kts 244°
2026-05-05 20:09 48.44904 -90.13272 37832 ft 451 kts 244°
2026-05-05 20:10 48.42023 -90.21580 37827 ft 449 kts 244°
2026-05-05 20:10 48.39133 -90.29888 37835 ft 448 kts 244°
2026-05-05 20:11 48.36237 -90.38188 37837 ft 448 kts 244°
2026-05-05 20:11 48.33337 -90.46473 37846 ft 448 kts 244°
2026-05-05 20:12 48.30425 -90.54765 37849 ft 448 kts 244°
2026-05-05 20:12 48.27508 -90.63045 37853 ft 448 kts 244°
2026-05-05 20:13 48.24586 -90.71310 37856 ft 448 kts 243°
2026-05-05 20:13 48.21661 -90.79561 37838 ft 448 kts 243°
2026-05-05 20:14 48.18707 -90.87754 37861 ft 446 kts 243°
2026-05-05 20:14 48.15753 -90.95946 37864 ft 447 kts 243°
2026-05-05 20:15 48.12811 -91.04140 37870 ft 447 kts 243°
2026-05-05 20:15 48.09871 -91.12327 37868 ft 447 kts 243°
2026-05-05 20:16 48.06942 -91.20463 37875 ft 447 kts 243°
2026-05-05 20:16 48.03987 -91.28643 37864 ft 447 kts 243°
2026-05-05 20:17 48.01025 -91.36816 37878 ft 448 kts 243°
2026-05-05 20:17 47.98058 -91.44973 37868 ft 445 kts 243°
2026-05-05 20:18 47.95095 -91.53099 37866 ft 445 kts 243°
2026-05-05 20:18 47.92130 -91.61203 37859 ft 445 kts 243°
2026-05-05 20:19 47.89160 -91.69297 37840 ft 445 kts 243°
2026-05-05 20:19 47.86182 -91.77390 37846 ft 446 kts 243°
2026-05-05 20:20 47.83194 -91.85480 37847 ft 446 kts 243°
2026-05-05 20:20 47.80186 -91.93550 37890 ft 446 kts 242°
2026-05-05 20:21 47.77157 -92.01592 37893 ft 445 kts 243°
2026-05-05 20:21 47.74154 -92.09610 37895 ft 444 kts 243°
2026-05-05 20:22 47.71159 -92.17634 37897 ft 445 kts 243°
2026-05-05 20:22 47.68164 -92.25665 37898 ft 445 kts 243°
2026-05-05 20:23 47.65172 -92.33639 37898 ft 445 kts 243°
2026-05-05 20:23 47.62152 -92.41649 37900 ft 445 kts 243°
2026-05-05 20:24 47.59129 -92.49640 37901 ft 445 kts 243°
2026-05-05 20:24 47.56090 -92.57649 37874 ft 445 kts 243°
2026-05-05 20:25 47.53071 -92.65583 37899 ft 442 kts 243°
2026-05-05 20:25 47.50045 -92.73511 37902 ft 442 kts 243°
2026-05-05 20:26 47.47033 -92.81379 37886 ft 442 kts 243°
2026-05-05 20:26 47.43996 -92.89289 37887 ft 442 kts 243°
2026-05-05 20:27 47.40955 -92.97181 37887 ft 442 kts 243°
2026-05-05 20:27 47.37876 -93.05046 37896 ft 442 kts 242°
2026-05-05 20:28 47.34799 -93.12920 37908 ft 442 kts 243°
2026-05-05 20:28 47.31740 -93.20778 37939 ft 441 kts 243°
2026-05-05 20:29 47.28687 -93.28613 37939 ft 440 kts 243°
2026-05-05 20:29 47.25630 -93.36438 37934 ft 441 kts 243°
2026-05-05 20:30 47.22590 -93.44196 37934 ft 441 kts 243°
2026-05-05 20:30 47.19519 -93.52010 37934 ft 441 kts 243°
2026-05-05 20:31 47.16445 -93.59808 37936 ft 440 kts 242°
2026-05-05 20:31 47.13355 -93.67578 37938 ft 441 kts 241°
2026-05-05 20:32 47.10631 -93.73899 37961 ft 440 kts 240°
2026-05-05 20:32 47.06734 -93.82637 37957 ft 440 kts 240°
2026-05-05 20:33 47.03388 -93.90153 37951 ft 439 kts 240°
2026-05-05 20:33 47.00614 -93.96395 37949 ft 439 kts 240°
2026-05-05 20:34 46.97274 -94.03904 37948 ft 439 kts 240°
2026-05-05 20:34 46.93931 -94.11401 37940 ft 440 kts 240°
2026-05-05 20:35 46.90579 -94.18898 37940 ft 440 kts 240°
2026-05-05 20:35 46.87230 -94.26366 37941 ft 439 kts 239°
2026-05-05 20:36 46.83880 -94.33814 37940 ft 438 kts 239°
2026-05-05 20:36 46.80523 -94.41261 37930 ft 438 kts 239°
2026-05-05 20:37 46.77168 -94.48684 37922 ft 438 kts 239°
2026-05-05 20:37 46.73827 -94.56054 37938 ft 438 kts 239°
2026-05-05 20:38 46.70455 -94.63473 37939 ft 438 kts 239°
2026-05-05 20:38 46.67077 -94.70861 37955 ft 438 kts 239°
2026-05-05 20:39 46.63667 -94.78235 37961 ft 438 kts 239°
2026-05-05 20:39 46.60271 -94.85603 37966 ft 438 kts 239°
2026-05-05 20:40 46.56883 -94.92972 37961 ft 440 kts 239°
2026-05-05 20:40 46.53500 -95.00318 37959 ft 440 kts 239°
2026-05-05 20:41 46.50092 -95.07698 37963 ft 440 kts 239°
2026-05-05 20:41 46.46681 -95.15064 37959 ft 440 kts 239°
2026-05-05 20:42 46.43268 -95.22414 37960 ft 438 kts 239°
2026-05-05 20:42 46.39858 -95.29742 37973 ft 438 kts 239°
2026-05-05 20:43 46.36439 -95.37067 37985 ft 439 kts 239°
2026-05-05 20:43 46.33018 -95.44378 37983 ft 439 kts 239°
2026-05-05 20:44 46.29590 -95.51684 37988 ft 439 kts 239°
2026-05-05 20:44 46.26158 -95.58980 38273 ft 439 kts 239°
2026-05-05 20:44 46.24461 -95.62582 38505 ft 440 kts 239°
2026-05-05 20:45 46.21008 -95.69880 38948 ft 439 kts 238°
2026-05-05 20:45 46.19274 -95.73501 39142 ft 439 kts 238°
2026-05-05 20:45 46.17538 -95.77122 39332 ft 439 kts 238°
2026-05-05 20:46 46.15805 -95.80745 39511 ft 439 kts 238°
2026-05-05 20:46 46.14074 -95.84372 39685 ft 439 kts 238°
2026-05-05 20:46 46.12344 -95.88002 39890 ft 438 kts 238°
2026-05-05 20:46 46.10614 -95.91631 39967 ft 439 kts 238°
2026-05-05 20:47 46.07153 -95.98886 39987 ft 440 kts 238°
2026-05-05 20:47 46.03682 -96.06143 39995 ft 440 kts 238°
2026-05-05 20:48 46.00204 -96.13394 39972 ft 440 kts 238°
2026-05-05 20:48 45.96743 -96.20589 39997 ft 436 kts 238°
2026-05-05 20:49 45.93288 -96.27756 40001 ft 436 kts 238°
2026-05-05 20:49 45.89831 -96.34909 40003 ft 437 kts 238°
2026-05-05 20:50 45.86357 -96.42078 40007 ft 437 kts 238°
2026-05-05 20:50 45.82877 -96.49242 40008 ft 437 kts 238°
2026-05-05 20:51 45.79395 -96.56390 39999 ft 438 kts 238°
2026-05-05 20:51 45.75912 -96.63521 39992 ft 434 kts 238°
2026-05-05 20:52 45.72466 -96.70522 39998 ft 433 kts 238°
2026-05-05 20:52 45.68974 -96.77563 39999 ft 434 kts 238°
2026-05-05 20:53 45.65489 -96.84619 40000 ft 434 kts 238°
2026-05-05 20:53 45.62007 -96.91673 40002 ft 434 kts 238°
2026-05-05 20:54 45.58520 -96.98727 40001 ft 434 kts 238°
2026-05-05 20:54 45.55028 -97.05772 39986 ft 434 kts 238°
2026-05-05 20:55 45.51556 -97.12758 40001 ft 431 kts 238°
2026-05-05 20:55 45.48075 -97.19747 40006 ft 431 kts 238°
2026-05-05 20:56 45.44620 -97.26666 40006 ft 431 kts 238°
2026-05-05 20:56 45.41137 -97.33626 40011 ft 431 kts 238°
2026-05-05 20:57 45.37648 -97.40578 40013 ft 431 kts 238°
2026-05-05 20:57 45.34159 -97.47513 40015 ft 431 kts 238°
2026-05-05 20:58 45.30668 -97.54434 40012 ft 429 kts 238°
2026-05-05 20:58 45.27188 -97.61319 40016 ft 429 kts 238°
2026-05-05 20:59 45.23712 -97.68130 40015 ft 429 kts 237°
2026-05-05 20:59 45.20201 -97.74978 40020 ft 429 kts 237°
2026-05-05 21:00 45.16696 -97.81839 40020 ft 430 kts 237°
2026-05-05 21:00 45.13190 -97.88704 40020 ft 430 kts 237°
2026-05-05 21:01 45.09682 -97.95560 40010 ft 428 kts 237°
2026-05-05 21:01 45.06218 -98.02314 40020 ft 427 kts 237°
2026-05-05 21:02 45.02727 -98.09107 40019 ft 428 kts 237°
2026-05-05 21:02 44.99221 -98.15912 40026 ft 428 kts 237°
2026-05-05 21:03 44.95706 -98.22717 40025 ft 429 kts 237°
2026-05-05 21:03 44.92185 -98.29516 40033 ft 429 kts 237°
2026-05-05 21:04 44.88666 -98.36297 40035 ft 429 kts 237°
2026-05-05 21:04 44.85147 -98.43060 40026 ft 427 kts 237°
2026-05-05 21:05 44.81626 -98.49813 40032 ft 428 kts 237°
2026-05-05 21:05 44.78095 -98.56568 40029 ft 428 kts 237°
2026-05-05 21:06 44.74569 -98.63249 40035 ft 428 kts 237°
2026-05-05 21:06 44.71008 -98.69968 40029 ft 428 kts 237°
2026-05-05 21:07 44.67458 -98.76693 40023 ft 429 kts 237°
2026-05-05 21:07 44.63899 -98.83434 40027 ft 428 kts 237°
2026-05-05 21:08 44.60358 -98.90130 40033 ft 426 kts 237°
2026-05-05 21:08 44.56820 -98.96804 40034 ft 426 kts 237°
2026-05-05 21:09 44.53297 -99.03437 40033 ft 427 kts 237°
2026-05-05 21:09 44.49750 -99.10096 40026 ft 427 kts 236°
2026-05-05 21:10 44.46190 -99.16767 40036 ft 428 kts 236°
2026-05-05 21:10 44.42618 -99.23443 40037 ft 428 kts 236°
2026-05-05 21:11 44.39042 -99.30111 40039 ft 429 kts 236°
2026-05-05 21:11 44.35461 -99.36773 40039 ft 429 kts 236°
2026-05-05 21:12 44.31877 -99.43424 40042 ft 429 kts 236°
2026-05-05 21:12 44.28289 -99.50068 40045 ft 429 kts 236°
2026-05-05 21:13 44.24669 -99.56709 40050 ft 430 kts 236°
2026-05-05 21:13 44.21049 -99.63323 40051 ft 430 kts 236°
2026-05-05 21:14 44.17526 -99.69782 40049 ft 427 kts 236°
2026-05-05 21:14 44.13942 -99.76357 40051 ft 427 kts 236°
2026-05-05 21:15 44.10350 -99.82935 40058 ft 427 kts 236°
2026-05-05 21:15 44.06747 -99.89518 40056 ft 428 kts 236°
2026-05-05 21:16 44.03137 -99.96098 40055 ft 428 kts 236°
2026-05-05 21:16 43.99526 -100.02664 40064 ft 428 kts 236°
2026-05-05 21:17 43.95913 -100.09218 40056 ft 426 kts 236°
2026-05-05 21:17 43.92328 -100.15707 40069 ft 426 kts 236°
2026-05-05 21:18 43.88719 -100.22225 40066 ft 426 kts 236°
2026-05-05 21:18 43.85106 -100.28738 40064 ft 426 kts 236°
2026-05-05 21:19 43.81484 -100.35251 40064 ft 427 kts 236°
2026-05-05 21:19 43.77857 -100.41758 40064 ft 427 kts 236°
2026-05-05 21:20 43.74214 -100.48233 40041 ft 427 kts 236°
2026-05-05 21:20 43.70570 -100.54685 40061 ft 425 kts 236°
2026-05-05 21:21 43.67556 -100.60041 40061 ft 424 kts 236°
2026-05-05 21:21 43.63344 -100.67528 40065 ft 425 kts 236°
2026-05-05 21:22 43.59716 -100.73966 40064 ft 425 kts 236°
2026-05-05 21:22 43.56088 -100.80390 40052 ft 425 kts 236°
2026-05-05 21:23 43.53068 -100.85732 40051 ft 424 kts 236°
2026-05-05 21:23 43.49509 -100.92220 40029 ft 422 kts 237°
2026-05-05 21:24 43.46017 -100.98696 40034 ft 421 kts 237°
2026-05-05 21:24 43.42528 -101.05167 40034 ft 420 kts 237°
2026-05-05 21:25 43.39041 -101.11613 40035 ft 420 kts 237°
2026-05-05 21:25 43.35546 -101.18057 40040 ft 420 kts 237°
2026-05-05 21:26 43.32045 -101.24495 40048 ft 420 kts 237°
2026-05-05 21:26 43.28564 -101.30879 40060 ft 421 kts 236°
2026-05-05 21:27 43.25038 -101.37304 40047 ft 420 kts 236°
2026-05-05 21:27 43.21533 -101.43688 40056 ft 418 kts 236°
2026-05-05 21:28 43.18035 -101.50063 40052 ft 418 kts 236°
2026-05-05 21:28 43.14535 -101.56432 40047 ft 418 kts 236°
2026-05-05 21:29 43.11033 -101.62788 40047 ft 418 kts 236°
2026-05-05 21:29 43.07525 -101.69145 40046 ft 419 kts 236°
2026-05-05 21:30 43.04003 -101.75510 40048 ft 420 kts 236°
2026-05-05 21:30 43.00480 -101.81814 40037 ft 419 kts 236°
2026-05-05 21:31 42.96946 -101.88120 40038 ft 417 kts 236°
2026-05-05 21:31 42.93435 -101.94432 40039 ft 417 kts 237°
2026-05-05 21:32 42.89927 -102.00743 40041 ft 417 kts 237°
2026-05-05 21:32 42.86408 -102.07045 40011 ft 418 kts 237°
2026-05-05 21:33 42.82869 -102.13362 40017 ft 419 kts 236°
2026-05-05 21:33 42.79325 -102.19673 40048 ft 419 kts 236°
2026-05-05 21:34 42.75798 -102.25937 40049 ft 418 kts 237°
2026-05-05 21:34 42.72257 -102.32215 40046 ft 418 kts 237°
2026-05-05 21:35 42.68715 -102.38483 40048 ft 418 kts 237°
2026-05-05 21:35 42.65169 -102.44746 40043 ft 419 kts 236°
2026-05-05 21:36 42.61601 -102.51031 40044 ft 420 kts 236°
2026-05-05 21:36 42.58030 -102.57310 40039 ft 420 kts 236°
2026-05-05 21:37 42.54460 -102.63572 40024 ft 420 kts 236°
2026-05-05 21:37 42.50874 -102.69822 40016 ft 419 kts 236°
2026-05-05 21:38 42.47285 -102.76033 40021 ft 418 kts 236°
2026-05-05 21:38 42.43730 -102.82208 40014 ft 418 kts 236°
2026-05-05 21:39 42.40161 -102.88414 40015 ft 418 kts 236°
2026-05-05 21:39 42.36585 -102.94623 40002 ft 418 kts 236°
2026-05-05 21:40 42.33012 -103.00814 40002 ft 418 kts 236°
2026-05-05 21:40 42.29431 -103.07006 39994 ft 418 kts 236°
2026-05-05 21:41 42.25847 -103.13190 39975 ft 418 kts 236°
2026-05-05 21:41 42.22271 -103.19347 39991 ft 416 kts 236°
2026-05-05 21:42 42.18692 -103.25497 39985 ft 417 kts 236°
2026-05-05 21:42 42.15112 -103.31637 39988 ft 417 kts 236°
2026-05-05 21:43 42.11525 -103.37774 39994 ft 417 kts 236°
2026-05-05 21:43 42.07935 -103.43905 39995 ft 417 kts 236°
2026-05-05 21:44 42.04343 -103.50027 39982 ft 417 kts 236°
2026-05-05 21:44 42.00741 -103.56146 40004 ft 418 kts 236°
2026-05-05 21:45 41.97109 -103.62251 40009 ft 418 kts 236°
2026-05-05 21:45 41.93509 -103.68315 40011 ft 418 kts 236°
2026-05-05 21:46 41.89869 -103.74460 40008 ft 418 kts 236°
2026-05-05 21:46 41.86269 -103.80534 40001 ft 418 kts 236°
2026-05-05 21:47 41.82648 -103.86631 39987 ft 418 kts 236°
2026-05-05 21:47 41.79011 -103.92742 39997 ft 420 kts 236°
2026-05-05 21:48 41.75365 -103.98855 39998 ft 420 kts 236°
2026-05-05 21:48 41.71724 -104.04946 40018 ft 419 kts 236°
2026-05-05 21:49 41.68083 -104.11027 40027 ft 419 kts 236°
2026-05-05 21:49 41.64434 -104.17109 40035 ft 419 kts 236°
2026-05-05 21:50 41.60786 -104.23177 40038 ft 419 kts 235°
2026-05-05 21:50 41.57143 -104.29224 40051 ft 421 kts 235°
2026-05-05 21:51 41.53467 -104.35312 40061 ft 421 kts 235°
2026-05-05 21:51 41.49790 -104.41391 40073 ft 421 kts 235°
2026-05-05 21:52 41.44258 -104.50438 40071 ft 419 kts 235°
2026-05-05 21:53 41.40581 -104.56464 40057 ft 419 kts 235°
2026-05-05 21:53 41.36911 -104.62485 40040 ft 419 kts 235°
2026-05-05 21:54 41.33238 -104.68502 40025 ft 419 kts 235°
2026-05-05 21:54 41.29582 -104.74482 40012 ft 419 kts 235°
2026-05-05 21:55 41.25903 -104.80485 40000 ft 419 kts 235°
2026-05-05 21:55 41.22218 -104.86486 39987 ft 418 kts 235°
2026-05-05 21:56 41.18547 -104.92451 39997 ft 416 kts 234°
2026-05-05 21:56 41.14870 -104.98419 40007 ft 418 kts 234°
2026-05-05 21:57 41.11190 -105.04379 40052 ft 418 kts 234°
2026-05-05 21:57 41.07504 -105.10334 40058 ft 418 kts 234°
2026-05-05 21:58 41.03815 -105.16283 40060 ft 418 kts 234°
2026-05-05 21:58 41.00121 -105.22229 40060 ft 418 kts 234°
2026-05-05 21:59 40.96425 -105.28163 40062 ft 418 kts 234°
2026-05-05 21:59 40.92728 -105.34038 40058 ft 418 kts 234°
2026-05-05 22:00 40.89010 -105.39954 40050 ft 418 kts 234°
2026-05-05 22:00 40.85301 -105.45870 40053 ft 418 kts 234°
2026-05-05 22:01 40.81591 -105.51783 40030 ft 418 kts 234°
2026-05-05 22:01 40.77880 -105.57688 40009 ft 418 kts 234°
2026-05-05 22:02 40.74796 -105.62585 40009 ft 418 kts 234°
2026-05-05 22:02 40.70465 -105.69452 39983 ft 419 kts 233°
2026-05-05 22:03 40.66732 -105.75358 39953 ft 418 kts 233°
2026-05-05 22:03 40.63005 -105.81239 39919 ft 418 kts 233°
2026-05-05 22:04 40.59276 -105.87115 39918 ft 418 kts 233°
2026-05-05 22:04 40.55542 -105.92986 39858 ft 418 kts 233°
2026-05-05 22:05 40.51838 -105.98800 39855 ft 418 kts 233°
2026-05-05 22:05 40.48094 -106.04666 39864 ft 420 kts 233°
2026-05-05 22:06 40.44355 -106.10576 39819 ft 419 kts 236°
2026-05-05 22:06 40.41109 -106.16892 39812 ft 416 kts 240°
2026-05-05 22:07 40.38107 -106.23353 39809 ft 414 kts 241°
2026-05-05 22:07 40.35109 -106.29810 39783 ft 414 kts 240°
2026-05-05 22:08 40.32091 -106.36240 39775 ft 414 kts 240°
2026-05-05 22:08 40.29047 -106.42691 39785 ft 417 kts 240°
2026-05-05 22:09 40.26500 -106.48073 39782 ft 418 kts 240°
2026-05-05 22:09 40.22936 -106.55588 39755 ft 418 kts 240°
2026-05-05 22:10 40.19873 -106.62032 39758 ft 418 kts 240°
2026-05-05 22:10 40.17294 -106.67448 39761 ft 418 kts 240°
2026-05-05 22:11 40.14213 -106.73905 39753 ft 421 kts 240°
2026-05-05 22:11 40.11102 -106.80415 39722 ft 423 kts 240°
2026-05-05 22:12 40.07990 -106.86901 39738 ft 421 kts 239°
2026-05-05 22:12 40.04899 -106.93333 39751 ft 420 kts 239°
2026-05-05 22:13 40.01787 -106.99800 39752 ft 421 kts 239°
2026-05-05 22:13 39.98655 -107.06260 39741 ft 420 kts 239°
2026-05-05 22:14 39.95503 -107.12726 39751 ft 423 kts 239°
2026-05-05 22:14 39.92352 -107.19212 39784 ft 424 kts 239°
2026-05-05 22:15 39.89223 -107.25663 39775 ft 424 kts 239°
2026-05-05 22:15 39.86077 -107.32143 39755 ft 424 kts 239°
2026-05-05 22:16 39.82920 -107.38626 39767 ft 424 kts 239°
2026-05-05 22:16 39.79752 -107.45116 39749 ft 427 kts 239°
2026-05-05 22:17 39.76571 -107.51620 39782 ft 426 kts 239°
2026-05-05 22:17 39.73390 -107.58110 39780 ft 426 kts 239°
2026-05-05 22:18 39.70208 -107.64590 39795 ft 425 kts 239°
2026-05-05 22:18 39.67020 -107.71067 39799 ft 425 kts 239°
2026-05-05 22:19 39.63847 -107.77501 39806 ft 427 kts 239°
2026-05-05 22:19 39.60631 -107.84009 39739 ft 429 kts 239°
2026-05-05 22:20 39.57408 -107.90518 39737 ft 429 kts 239°
2026-05-05 22:20 39.54168 -107.97017 39735 ft 429 kts 238°
2026-05-05 22:21 39.50915 -108.03499 39735 ft 429 kts 238°
2026-05-05 22:21 39.47670 -108.09987 39707 ft 429 kts 238°
2026-05-05 22:22 39.44437 -108.16454 39702 ft 427 kts 238°
2026-05-05 22:22 39.41209 -108.22907 39703 ft 427 kts 238°
2026-05-05 22:23 39.37984 -108.29343 39703 ft 427 kts 238°
2026-05-05 22:23 39.34751 -108.35778 39729 ft 426 kts 239°
2026-05-05 22:24 39.31535 -108.42167 39745 ft 427 kts 238°
2026-05-05 22:24 39.28290 -108.48602 39754 ft 428 kts 238°
2026-05-05 22:25 39.25041 -108.55030 39767 ft 428 kts 238°
2026-05-05 22:25 39.21777 -108.61474 39765 ft 428 kts 238°
2026-05-05 22:26 39.18520 -108.67892 39755 ft 428 kts 238°
2026-05-05 22:26 39.15254 -108.74314 39740 ft 428 kts 238°
2026-05-05 22:27 39.11983 -108.80734 39664 ft 430 kts 238°
2026-05-05 22:27 39.08673 -108.87189 39660 ft 432 kts 237°
2026-05-05 22:28 39.05366 -108.93595 39656 ft 433 kts 238°
2026-05-05 22:28 39.02041 -109.00059 39658 ft 433 kts 238°
2026-05-05 22:29 38.98724 -109.06511 39661 ft 433 kts 238°
2026-05-05 22:29 38.95405 -109.12963 39657 ft 433 kts 237°
2026-05-05 22:30 38.92061 -109.19448 39658 ft 436 kts 237°
2026-05-05 22:30 38.88704 -109.25944 39659 ft 437 kts 237°
2026-05-05 22:31 38.85343 -109.32434 39656 ft 437 kts 237°
2026-05-05 22:31 38.81980 -109.38914 39659 ft 435 kts 237°
2026-05-05 22:32 38.78633 -109.45350 39666 ft 434 kts 237°
2026-05-05 22:32 38.75279 -109.51791 39667 ft 437 kts 237°
2026-05-05 22:33 38.71901 -109.58263 39671 ft 437 kts 237°
2026-05-05 22:33 38.68518 -109.64729 39675 ft 437 kts 237°
2026-05-05 22:34 38.65130 -109.71192 39669 ft 437 kts 237°
2026-05-05 22:34 38.61743 -109.77600 39669 ft 437 kts 237°
2026-05-05 22:35 38.58322 -109.84052 39668 ft 440 kts 237°
2026-05-05 22:35 38.54891 -109.90545 39669 ft 441 kts 237°
2026-05-05 22:36 38.51456 -109.97044 39669 ft 441 kts 237°
2026-05-05 22:36 38.48042 -110.03544 39667 ft 439 kts 237°
2026-05-05 22:37 38.44665 -110.10040 39668 ft 439 kts 237°
2026-05-05 22:37 38.41290 -110.16534 39676 ft 441 kts 237°
2026-05-05 22:38 38.37893 -110.23056 39673 ft 442 kts 237°
2026-05-05 22:38 38.34511 -110.29534 39673 ft 442 kts 237°
2026-05-05 22:39 38.31100 -110.36051 39673 ft 442 kts 237°
2026-05-05 22:39 38.27690 -110.42556 39675 ft 442 kts 237°
2026-05-05 22:40 38.24274 -110.49059 39674 ft 443 kts 237°
2026-05-05 22:40 38.20827 -110.55608 39672 ft 446 kts 237°
2026-05-05 22:41 38.17366 -110.62171 39671 ft 446 kts 237°
2026-05-05 22:41 38.13941 -110.68650 39713 ft 443 kts 237°
2026-05-05 22:42 38.10510 -110.75130 39696 ft 442 kts 236°
2026-05-05 22:42 38.07071 -110.81612 39686 ft 443 kts 236°
2026-05-05 22:43 38.03612 -110.88108 39685 ft 445 kts 236°
2026-05-05 22:43 38.00120 -110.94605 39687 ft 445 kts 236°
2026-05-05 22:44 37.96637 -111.01099 39686 ft 446 kts 236°
2026-05-05 22:44 37.93154 -111.07605 39682 ft 446 kts 236°
2026-05-05 22:45 37.89676 -111.14096 39699 ft 446 kts 236°
2026-05-05 22:45 37.86194 -111.20583 39693 ft 449 kts 236°
2026-05-05 22:46 37.82683 -111.27109 39684 ft 448 kts 236°
2026-05-05 22:46 37.79182 -111.33602 39693 ft 446 kts 236°
2026-05-05 22:47 37.75690 -111.40070 39687 ft 445 kts 236°
2026-05-05 22:47 37.72191 -111.46533 39701 ft 446 kts 236°
2026-05-05 22:48 37.68689 -111.52991 39696 ft 446 kts 236°
2026-05-05 22:48 37.65185 -111.59441 39701 ft 446 kts 236°
2026-05-05 22:49 37.61676 -111.65888 39706 ft 445 kts 236°
2026-05-05 22:49 37.58159 -111.72336 39710 ft 446 kts 236°
2026-05-05 22:50 37.54647 -111.78720 39737 ft 446 kts 235°
2026-05-05 22:50 37.51092 -111.85166 39760 ft 450 kts 235°
2026-05-05 22:51 37.47434 -111.91573 39764 ft 449 kts 234°
2026-05-05 22:51 37.43724 -111.97898 39770 ft 448 kts 234°
2026-05-05 22:52 37.40018 -112.04205 39757 ft 448 kts 234°
2026-05-05 22:52 37.36314 -112.10514 39751 ft 448 kts 234°
2026-05-05 22:53 37.32610 -112.16829 39735 ft 450 kts 234°
2026-05-05 22:53 37.28888 -112.23175 39749 ft 451 kts 234°
2026-05-05 22:54 37.25159 -112.29522 39748 ft 451 kts 234°
2026-05-05 22:54 37.21429 -112.35856 39763 ft 451 kts 234°
2026-05-05 22:55 37.17701 -112.42176 39759 ft 451 kts 234°
2026-05-05 22:55 37.13961 -112.48505 39770 ft 452 kts 234°
2026-05-05 22:56 37.10218 -112.54826 39769 ft 451 kts 234°
2026-05-05 22:56 37.06497 -112.61098 39788 ft 451 kts 233°
2026-05-05 22:57 37.02741 -112.67393 39822 ft 451 kts 233°
2026-05-05 22:57 36.98981 -112.73693 39859 ft 451 kts 233°
2026-05-05 22:58 36.95223 -112.79995 39888 ft 452 kts 233°
2026-05-05 22:58 36.92090 -112.85245 39909 ft 454 kts 233°
2026-05-05 22:59 36.88307 -112.91573 39923 ft 454 kts 233°
2026-05-05 22:59 36.84525 -112.97887 39920 ft 454 kts 233°
2026-05-05 23:00 36.78850 -113.07339 39890 ft 452 kts 233°
2026-05-05 23:00 36.75077 -113.13609 39874 ft 452 kts 233°
2026-05-05 23:01 36.71288 -113.19895 39845 ft 454 kts 233°
2026-05-05 23:01 36.67493 -113.26177 39824 ft 454 kts 233°
2026-05-05 23:02 36.63692 -113.32458 39822 ft 454 kts 233°
2026-05-05 23:02 36.59979 -113.38803 39826 ft 454 kts 234°
2026-05-05 23:03 36.56341 -113.45225 39829 ft 455 kts 235°
2026-05-05 23:03 36.52700 -113.51680 39826 ft 456 kts 235°
2026-05-05 23:04 36.49050 -113.58133 39827 ft 456 kts 235°
2026-05-05 23:04 36.45422 -113.64529 39817 ft 455 kts 234°
2026-05-05 23:05 36.41782 -113.70932 39821 ft 453 kts 234°
2026-05-05 23:05 36.38138 -113.77330 39812 ft 454 kts 234°
2026-05-05 23:06 36.34475 -113.83748 39814 ft 455 kts 234°
2026-05-05 23:06 36.30812 -113.90154 39806 ft 455 kts 234°
2026-05-05 23:07 36.27144 -113.96558 39806 ft 455 kts 234°
2026-05-05 23:07 36.23497 -114.02914 39795 ft 455 kts 234°
2026-05-05 23:08 36.19819 -114.09310 39795 ft 457 kts 234°
2026-05-05 23:08 36.16128 -114.15718 39786 ft 458 kts 234°
2026-05-05 23:09 36.12407 -114.22130 39788 ft 458 kts 234°
2026-05-05 23:09 36.08488 -114.28330 39777 ft 456 kts 230°
2026-05-05 23:10 36.04288 -114.34178 39782 ft 455 kts 228°
2026-05-05 23:10 36.00056 -114.39985 39781 ft 455 kts 229°
2026-05-05 23:11 35.95830 -114.45831 39787 ft 457 kts 229°
2026-05-05 23:11 35.91607 -114.51689 39801 ft 457 kts 229°
2026-05-05 23:12 35.87383 -114.57547 39814 ft 457 kts 229°
2026-05-05 23:12 35.83177 -114.63368 39788 ft 457 kts 229°
2026-05-05 23:13 35.78944 -114.69216 39832 ft 457 kts 229°
2026-05-05 23:13 35.74709 -114.75054 39832 ft 456 kts 229°
2026-05-05 23:14 35.70480 -114.80875 39873 ft 457 kts 229°
2026-05-05 23:14 35.66237 -114.86698 39874 ft 457 kts 228°
2026-05-05 23:15 35.61980 -114.92502 39870 ft 456 kts 228°
2026-05-05 23:15 35.57756 -114.98263 39871 ft 456 kts 228°
2026-05-05 23:16 35.53506 -115.04063 39886 ft 458 kts 228°
2026-05-05 23:16 35.49207 -115.09856 39882 ft 459 kts 227°
2026-05-05 23:17 35.44835 -115.15578 39882 ft 459 kts 227°
2026-05-05 23:17 35.40483 -115.21244 39888 ft 455 kts 227°
2026-05-05 23:18 35.36148 -115.26891 39897 ft 455 kts 227°
2026-05-05 23:18 35.31816 -115.32533 39892 ft 455 kts 227°
2026-05-05 23:19 35.27468 -115.38186 39892 ft 457 kts 227°
2026-05-05 23:19 35.23104 -115.43850 39900 ft 457 kts 227°
2026-05-05 23:20 35.18729 -115.49518 39892 ft 458 kts 227°
2026-05-05 23:20 35.14362 -115.55167 39893 ft 458 kts 227°
2026-05-05 23:21 35.09980 -115.60791 39888 ft 454 kts 227°
2026-05-05 23:21 35.05615 -115.66359 39879 ft 455 kts 227°
2026-05-05 23:22 35.01261 -115.71916 39880 ft 456 kts 227°
2026-05-05 23:22 34.96875 -115.77512 39876 ft 456 kts 227°
2026-05-05 23:23 34.92488 -115.83100 39873 ft 456 kts 227°
2026-05-05 23:23 34.88098 -115.88685 39870 ft 456 kts 227°
2026-05-05 23:24 34.83703 -115.94266 39867 ft 456 kts 227°
2026-05-05 23:24 34.79300 -115.99847 39870 ft 456 kts 227°
2026-05-05 23:25 34.74932 -116.05394 39866 ft 454 kts 227°
2026-05-05 23:25 34.70608 -116.10916 39580 ft 446 kts 227°
2026-05-05 23:26 34.68471 -116.13650 39281 ft 447 kts 227°
2026-05-05 23:26 34.66358 -116.16352 38898 ft 447 kts 227°
2026-05-05 23:26 34.64216 -116.19089 38331 ft 447 kts 227°
2026-05-05 23:26 34.62066 -116.21834 37743 ft 448 kts 227°
2026-05-05 23:27 34.59912 -116.24581 37200 ft 450 kts 227°
2026-05-05 23:27 34.57748 -116.27338 36685 ft 452 kts 227°
2026-05-05 23:27 34.55580 -116.30099 36158 ft 453 kts 227°
2026-05-05 23:27 34.53398 -116.32873 35642 ft 454 kts 228°
2026-05-05 23:28 34.51215 -116.35646 35116 ft 456 kts 228°
2026-05-05 23:28 34.49022 -116.38430 34619 ft 456 kts 228°
2026-05-05 23:28 34.46822 -116.41223 34045 ft 458 kts 228°
2026-05-05 23:28 34.44621 -116.44013 33424 ft 459 kts 227°
2026-05-05 23:29 34.42432 -116.46830 32823 ft 460 kts 230°
2026-05-05 23:29 34.40533 -116.49949 32256 ft 460 kts 239°
2026-05-05 23:29 34.38965 -116.53319 31679 ft 461 kts 244°
2026-05-05 23:29 34.37547 -116.56810 31103 ft 462 kts 246°
2026-05-05 23:30 34.36181 -116.60325 30695 ft 463 kts 246°
2026-05-05 23:30 34.34817 -116.63826 30437 ft 450 kts 246°
2026-05-05 23:30 34.33487 -116.67186 30000 ft 438 kts 245°
2026-05-05 23:30 34.32177 -116.70485 29372 ft 432 kts 246°
2026-05-05 23:31 34.30883 -116.73742 28657 ft 428 kts 245°
2026-05-05 23:31 34.29594 -116.76977 28018 ft 425 kts 246°
2026-05-05 23:31 34.28328 -116.80148 27389 ft 423 kts 245°
2026-05-05 23:31 34.27049 -116.83340 26764 ft 420 kts 245°
2026-05-05 23:32 34.25778 -116.86508 26139 ft 419 kts 246°
2026-05-05 23:32 34.24514 -116.89657 25533 ft 416 kts 245°
2026-05-05 23:32 34.23256 -116.92793 24926 ft 414 kts 246°
2026-05-05 23:32 34.22002 -116.95914 24322 ft 410 kts 245°
2026-05-05 23:33 34.20829 -116.99040 23715 ft 408 kts 250°
2026-05-05 23:33 34.19846 -117.02235 23002 ft 404 kts 252°
2026-05-05 23:33 34.18965 -117.05436 22291 ft 398 kts 253°
2026-05-05 23:33 34.18129 -117.08603 21659 ft 394 kts 255°
2026-05-05 23:34 34.17307 -117.11742 21039 ft 389 kts 255°
2026-05-05 23:34 34.16485 -117.14848 20430 ft 386 kts 254°
2026-05-05 23:34 34.15658 -117.17913 19792 ft 381 kts 253°
2026-05-05 23:34 34.14834 -117.20932 19225 ft 376 kts 253°
2026-05-05 23:35 34.14016 -117.23910 18624 ft 372 kts 253°
2026-05-05 23:35 34.13207 -117.26855 17988 ft 368 kts 253°
2026-05-05 23:35 34.12406 -117.29764 17345 ft 363 kts 252°
2026-05-05 23:35 34.11614 -117.32638 16750 ft 360 kts 254°
2026-05-05 23:36 34.10827 -117.35495 16161 ft 357 kts 252°
2026-05-05 23:36 34.10077 -117.38340 15573 ft 353 kts 254°
2026-05-05 23:36 34.09366 -117.41150 15006 ft 349 kts 255°
2026-05-05 23:36 34.08670 -117.43944 14484 ft 345 kts 254°
2026-05-05 23:37 34.07985 -117.46700 14150 ft 342 kts 255°
2026-05-05 23:37 34.07263 -117.49378 13958 ft 331 kts 252°
2026-05-05 23:37 34.06422 -117.51946 13907 ft 330 kts 249°
2026-05-05 23:37 34.05529 -117.54498 13849 ft 331 kts 248°
2026-05-05 23:38 34.04628 -117.57017 13442 ft 332 kts 248°
2026-05-05 23:38 34.03715 -117.59558 12875 ft 328 kts 249°
2026-05-05 23:38 34.02809 -117.62070 12351 ft 326 kts 248°
2026-05-05 23:38 34.01909 -117.64571 11826 ft 324 kts 250°
2026-05-05 23:39 34.01026 -117.67067 11328 ft 321 kts 252°
2026-05-05 23:39 34.00457 -117.69648 10949 ft 319 kts 261°
2026-05-05 23:39 34.00126 -117.72267 10619 ft 310 kts 265°
2026-05-05 23:39 33.99879 -117.74759 10449 ft 294 kts 265°
2026-05-05 23:40 33.99649 -117.77187 10047 ft 292 kts 266°
2026-05-05 23:40 33.99423 -117.79622 9487 ft 292 kts 266°
2026-05-05 23:40 33.99195 -117.82039 9065 ft 288 kts 265°
2026-05-05 23:40 33.98968 -117.84430 8564 ft 287 kts 265°
2026-05-05 23:41 33.98741 -117.86813 8120 ft 284 kts 265°
2026-05-05 23:41 33.98514 -117.89158 7723 ft 279 kts 265°
2026-05-05 23:41 33.98290 -117.91460 7288 ft 277 kts 265°
2026-05-05 23:41 33.98065 -117.93773 6768 ft 278 kts 264°
2026-05-05 23:42 33.97842 -117.96053 6330 ft 277 kts 264°
2026-05-05 23:42 33.97617 -117.98346 5926 ft 272 kts 263°
2026-05-05 23:42 33.97396 -118.00585 5545 ft 267 kts 263°
2026-05-05 23:42 33.97179 -118.02784 5166 ft 262 kts 263°
2026-05-05 23:43 33.96968 -118.04927 5004 ft 252 kts 263°
2026-05-05 23:43 33.96762 -118.07019 4989 ft 253 kts 263°
2026-05-05 23:43 33.96587 -118.09157 4833 ft 260 kts 265°
2026-05-05 23:43 33.96442 -118.11307 4489 ft 255 kts 265°
2026-05-05 23:44 33.96277 -118.13414 4123 ft 250 kts 263°
2026-05-05 23:44 33.96056 -118.15469 3816 ft 245 kts 261°
2026-05-05 23:44 33.95825 -118.17481 3513 ft 238 kts 262°
2026-05-05 23:44 33.95621 -118.19371 3202 ft 219 kts 263°
2026-05-05 23:45 33.95510 -118.20552 3002 ft 201 kts 262°
2026-05-05 23:45 33.95318 -118.22622 2666 ft 177 kts 262°
2026-05-05 23:45 33.95180 -118.24039 2386 ft 167 kts 262°
2026-05-05 23:45 33.95038 -118.25401 2052 ft 159 kts 262°
2026-05-05 23:46 33.94940 -118.26284 2004 ft 159 kts 260°
2026-05-05 23:46 33.94797 -118.27608 1855 ft 157 kts 262°
2026-05-05 23:46 33.94676 -118.28887 1670 ft 147 kts 263°
2026-05-05 23:46 33.94567 -118.30052 1300 ft 138 kts 262°
2026-05-05 23:47 33.94454 -118.31167 1094 ft 134 kts 262°
2026-05-05 23:47 33.94332 -118.32292 989 ft 136 kts 259°
2026-05-05 23:47 33.94214 -118.33429 984 ft 136 kts 262°
2026-05-05 23:47 33.94110 -118.34557 745 ft 135 kts 262°
2026-05-05 23:48 33.93995 -118.35677 508 ft 136 kts 262°
2026-05-05 23:48 33.93866 -118.36816 413 ft 139 kts 264°
2026-05-05 23:48 33.93765 -118.37968 226 ft 136 kts 261°
2026-05-05 23:48 33.93655 -118.39052 102 ft 118 kts 262°
2026-05-05 23:49 33.93581 -118.39838 103 ft 85 kts 262°
2026-05-05 23:49 33.93514 -118.40467 104 ft 68 kts 262°
2026-05-05 23:49 33.93479 -118.40958 102 ft 46 kts 282°
2026-05-05 23:49 33.93530 -118.41158 102 ft 11 kts 284°
2026-05-05 23:50 33.93540 -118.41212 101 ft 0 kts 283°
2026-05-05 23:50 33.93547 -118.41230 103 ft 8 kts 296°
2026-05-05 23:50 33.93616 -118.41263 104 ft 15 kts 351°
2026-05-05 23:50 33.93720 -118.41272 104 ft 15 kts 11°
2026-05-05 23:51 33.93813 -118.41237 101 ft 13 kts 31°
2026-05-05 23:51 33.93875 -118.41171 100 ft 11 kts 16°
2026-05-05 23:51 33.93949 -118.41173 101 ft 11 kts 353°
2026-05-05 23:51 33.94030 -118.41186 101 ft 12 kts 353°
2026-05-05 23:52 33.94117 -118.41198 101 ft 13 kts 353°
2026-05-05 23:52 33.94128 -118.41200 102 ft 1 kts 353°
2026-05-05 23:52 33.94142 -118.41201 101 ft 3 kts 354°
2026-05-05 23:52 33.94160 -118.41192 101 ft 2 kts 40°
2026-05-05 23:53 33.94167 -118.41169 102 ft 3 kts 77°
2026-05-05 23:53 33.94172 -118.41139 102 ft 4 kts 78°
2026-05-05 23:53 33.94176 -118.41103 100 ft 5 kts 83°
2026-05-05 23:53 33.94178 -118.41092 100 ft 0 kts 83°